| time (UTC) | temp F | wind direction | speed MPH | gust MPH | rain 1hr in | rain 24hr in | rain mn in | humidity % | barometer mb |
| 20260507180400 | 65 | 68 | 8.0 | 9.0 | 0.00 | 0.01 | 0.00 | 67 | 1011.8 |
| 20260507180300 | 65 | 71 | 5.0 | 8.0 | 0.00 | 0.01 | 0.00 | 67 | 1011.8 |
| 20260507180204 | 65 | 69 | 3.0 | 8.0 | 0.00 | 0.01 | 0.00 | 67 | 1011.7 |
| 20260507180130 | 65 | 69 | 4.0 | 10.0 | 0.00 | 0.01 | 0.00 | 67 | 1011.7 |
| 20260507180005 | 65 | 59 | 4.0 | 10.0 | 0.00 | 0.01 | 0.00 | 66 | 1011.7 |
| 20260507175909 | 65 | 53 | 3.0 | 10.0 | 0.00 | 0.02 | 0.00 | 66 | 1011.8 |
| 20260507175803 | 66 | 50 | 5.0 | 10.0 | 0.00 | 0.02 | 0.00 | 66 | 1011.7 |
| 20260507175611 | 66 | 48 | 5.0 | 10.0 | 0.00 | 0.02 | 0.00 | 66 | 1011.7 |
| 20260507175500 | 66 | 74 | 7.0 | 10.0 | 0.00 | 0.02 | 0.00 | 65 | 1011.7 |
| 20260507175159 | 66 | 76 | 7.0 | 10.0 | 0.00 | 0.02 | 0.00 | 65 | 1011.7 |
| 20260507175100 | 66 | 63 | 9.0 | 10.0 | 0.00 | 0.02 | 0.00 | 65 | 1011.7 |
| 20260507175005 | 66 | 46 | 5.0 | 9.0 | 0.00 | 0.02 | 0.00 | 65 | 1011.7 |
| 20260507174801 | 66 | 80 | 7.0 | 10.0 | 0.00 | 0.02 | 0.00 | 65 | 1011.7 |
| 20260507174559 | 67 | 68 | 4.0 | 11.0 | 0.00 | 0.02 | 0.00 | 64 | 1011.6 |
| 20260507174403 | 67 | 63 | 7.0 | 11.0 | 0.00 | 0.02 | 0.00 | 64 | 1011.5 |
| 20260507174301 | 67 | 65 | 7.0 | 11.0 | 0.00 | 0.02 | 0.00 | 64 | 1011.6 |
| 20260507174200 | 67 | 73 | 7.0 | 11.0 | 0.00 | 0.02 | 0.00 | 63 | 1011.6 |
| 20260507174104 | 67 | 63 | 7.0 | 11.0 | 0.00 | 0.02 | 0.00 | 63 | 1011.6 |
| 20260507173900 | 67 | 67 | 7.0 | 11.0 | 0.00 | 0.02 | 0.00 | 63 | 1011.5 |
| 20260507173804 | 67 | 76 | 8.0 | 11.0 | 0.00 | 0.02 | 0.00 | 63 | 1011.5 |
| 20260507173602 | 67 | 77 | 8.0 | 11.0 | 0.00 | 0.02 | 0.00 | 62 | 1011.5 |
| 20260507173505 | 68 | 67 | 9.0 | 11.0 | 0.00 | 0.02 | 0.00 | 61 | 1011.5 |
| 20260507173401 | 68 | 69 | 7.0 | 11.0 | 0.00 | 0.02 | 0.00 | 61 | 1011.5 |
| 20260507173203 | 68 | 70 | 9.0 | 11.0 | 0.00 | 0.02 | 0.00 | 62 | 1011.5 |
| 20260507173100 | 68 | 78 | 7.0 | 11.0 | 0.00 | 0.02 | 0.00 | 61 | 1011.5 |
| 20260507172903 | 68 | 74 | 8.0 | 11.0 | 0.00 | 0.02 | 0.00 | 61 | 1011.5 |
| 20260507172800 | 68 | 59 | 7.0 | 11.0 | 0.00 | 0.02 | 0.00 | 61 | 1011.4 |
| 20260507172400 | 68 | 67 | 9.0 | 11.0 | 0.00 | 0.02 | 0.00 | 60 | 1011.5 |
| 20260507172201 | 68 | 47 | 6.0 | 11.0 | 0.00 | 0.02 | 0.00 | 60 | 1011.6 |
| 20260507172100 | 68 | 64 | 5.0 | 11.0 | 0.00 | 0.02 | 0.00 | 60 | 1011.6 |
| 20260507171903 | 68 | 70 | 8.0 | 11.0 | 0.00 | 0.02 | 0.00 | 60 | 1011.5 |
| 20260507171703 | 69 | 52 | 5.0 | 11.0 | 0.00 | 0.02 | 0.00 | 59 | 1011.5 |
| 20260507171600 | 69 | 82 | 10.0 | 11.0 | 0.00 | 0.02 | 0.00 | 59 | 1011.5 |
| 20260507171403 | 69 | 88 | 9.0 | 13.0 | 0.00 | 0.02 | 0.00 | 59 | 1011.5 |
| 20260507171301 | 69 | 76 | 9.0 | 13.0 | 0.00 | 0.02 | 0.00 | 58 | 1011.5 |
| 20260507171108 | 69 | 86 | 8.0 | 13.0 | 0.00 | 0.02 | 0.00 | 58 | 1011.5 |
| 20260507170600 | 69 | 88 | 9.0 | 13.0 | 0.00 | 0.02 | 0.00 | 58 | 1011.5 |
| 20260507170504 | 69 | 75 | 10.0 | 13.0 | 0.00 | 0.02 | 0.00 | 58 | 1011.5 |
| 20260507170359 | 69 | 76 | 13.0 | 14.0 | 0.00 | 0.02 | 0.00 | 58 | 1011.5 |
| 20260507170300 | 69 | 71 | 9.0 | 14.0 | 0.00 | 0.02 | 0.00 | 58 | 1011.5 |
| 20260507170203 | 69 | 74 | 8.0 | 14.0 | 0.00 | 0.02 | 0.00 | 59 | 1011.5 |
| 20260507170101 | 69 | 68 | 10.0 | 14.0 | 0.00 | 0.02 | 0.00 | 58 | 1011.6 |
| 20260507170009 | 69 | 61 | 8.0 | 14.0 | 0.00 | 0.02 | 0.00 | 57 | 1011.6 |
| 20260507165904 | 70 | 74 | 10.0 | 14.0 | 0.00 | 0.02 | 0.00 | 57 | 1011.5 |
| 20260507165605 | 70 | 75 | 10.0 | 14.0 | 0.00 | 0.02 | 0.00 | 58 | 1011.5 |
| 20260507165501 | 70 | 76 | 10.0 | 14.0 | 0.00 | 0.02 | 0.00 | 58 | 1011.5 |
| 20260507165306 | 70 | 71 | 11.0 | 12.0 | 0.00 | 0.02 | 0.00 | 58 | 1011.4 |
| 20260507165200 | 70 | 61 | 9.0 | 12.0 | 0.00 | 0.02 | 0.00 | 57 | 1011.5 |
| 20260507165100 | 70 | 49 | 6.0 | 12.0 | 0.00 | 0.02 | 0.00 | 57 | 1011.5 |
| 20260507165005 | 70 | 63 | 10.0 | 13.0 | 0.00 | 0.02 | 0.00 | 57 | 1011.5 |
| 20260507164704 | 70 | 65 | 8.0 | 13.0 | 0.00 | 0.02 | 0.00 | 57 | 1011.4 |
| 20260507164559 | 70 | 60 | 10.0 | 13.0 | 0.00 | 0.02 | 0.00 | 56 | 1011.4 |
| 20260507164300 | 71 | 69 | 9.0 | 13.0 | 0.00 | 0.02 | 0.00 | 55 | 1011.4 |
| 20260507164201 | 71 | 53 | 5.0 | 13.0 | 0.00 | 0.02 | 0.00 | 56 | 1011.3 |
| 20260507164103 | 71 | 71 | 8.0 | 13.0 | 0.00 | 0.02 | 0.00 | 56 | 1011.3 |
| 20260507164004 | 71 | 70 | 10.0 | 13.0 | 0.00 | 0.02 | 0.00 | 54 | 1011.3 |
| 20260507163700 | 71 | 77 | 12.0 | 13.0 | 0.00 | 0.02 | 0.00 | 56 | 1011.2 |
| 20260507163503 | 71 | 67 | 8.0 | 13.0 | 0.00 | 0.02 | 0.00 | 55 | 1011.2 |
| 20260507163400 | 71 | 81 | 7.0 | 13.0 | 0.00 | 0.02 | 0.00 | 55 | 1011.2 |
| 20260507163301 | 71 | 56 | 8.0 | 13.0 | 0.00 | 0.02 | 0.00 | 54 | 1011.2 |
| 20260507163203 | 71 | 87 | 8.0 | 13.0 | 0.00 | 0.02 | 0.00 | 55 | 1011.2 |
| 20260507163100 | 71 | 87 | 10.0 | 12.0 | 0.00 | 0.02 | 0.00 | 54 | 1011.2 |
| 20260507162902 | 71 | 72 | 8.0 | 12.0 | 0.00 | 0.02 | 0.00 | 54 | 1011.2 |
| 20260507162800 | 72 | 57 | 10.0 | 12.0 | 0.00 | 0.02 | 0.00 | 54 | 1011.2 |
| 20260507162701 | 72 | 61 | 9.0 | 12.0 | 0.00 | 0.02 | 0.00 | 54 | 1011.2 |
| 20260507162501 | 72 | 65 | 8.0 | 12.0 | 0.00 | 0.02 | 0.00 | 54 | 1011.2 |
| 20260507162400 | 72 | 85 | 9.0 | 12.0 | 0.00 | 0.02 | 0.00 | 54 | 1011.2 |
| 20260507162306 | 72 | 120 | 5.0 | 11.0 | 0.00 | 0.02 | 0.00 | 53 | 1011.2 |
| 20260507162201 | 72 | 100 | 10.0 | 12.0 | 0.00 | 0.02 | 0.00 | 54 | 1011.2 |
| 20260507162100 | 72 | 104 | 9.0 | 12.0 | 0.00 | 0.02 | 0.00 | 55 | 1011.2 |
| 20260507162006 | 72 | 80 | 5.0 | 12.0 | 0.00 | 0.02 | 0.00 | 54 | 1011.2 |
| 20260507161801 | 72 | 86 | 6.0 | 12.0 | 0.00 | 0.02 | 0.00 | 54 | 1011.2 |
| 20260507161703 | 72 | 116 | 5.0 | 12.0 | 0.00 | 0.02 | 0.00 | 54 | 1011.2 |
| 20260507161600 | 72 | 116 | 8.0 | 12.0 | 0.00 | 0.02 | 0.00 | 53 | 1011.2 |
| 20260507161501 | 72 | 119 | 8.0 | 12.0 | 0.00 | 0.02 | 0.00 | 52 | 1011.2 |
| 20260507161403 | 72 | 98 | 10.0 | 12.0 | 0.00 | 0.02 | 0.00 | 51 | 1011.2 |
| 20260507161300 | 72 | 112 | 11.0 | 12.0 | 0.00 | 0.02 | 0.00 | 52 | 1011.2 |
| 20260507161201 | 72 | 108 | 10.0 | 11.0 | 0.00 | 0.02 | 0.00 | 52 | 1011.2 |
| 20260507161103 | 72 | 121 | 7.0 | 11.0 | 0.00 | 0.02 | 0.00 | 51 | 1011.2 |
| 20260507161001 | 72 | 113 | 7.0 | 11.0 | 0.00 | 0.02 | 0.00 | 52 | 1011.2 |
| 20260507160900 | 72 | 105 | 3.0 | 11.0 | 0.00 | 0.02 | 0.00 | 53 | 1011.1 |
| 20260507160600 | 72 | 80 | 8.0 | 11.0 | 0.00 | 0.02 | 0.00 | 56 | 1011.2 |
| 20260507160503 | 72 | 88 | 10.0 | 11.0 | 0.00 | 0.02 | 0.00 | 55 | 1011.2 |
| 20260507160359 | 72 | 74 | 5.0 | 11.0 | 0.00 | 0.02 | 0.00 | 55 | 1011.2 |
| 20260507160203 | 72 | 130 | 5.0 | 11.0 | 0.00 | 0.02 | 0.00 | 54 | 1011.2 |
| 20260507160120 | 72 | 92 | 7.0 | 11.0 | 0.00 | 0.02 | 0.00 | 54 | 1011.2 |
| 20260507160004 | 72 | 90 | 7.0 | 11.0 | 0.00 | 0.02 | 0.00 | 54 | 1011.2 |
| 20260507155904 | 72 | 87 | 3.0 | 10.0 | 0.00 | 0.02 | 0.00 | 53 | 1011.2 |
| 20260507155800 | 72 | 115 | 7.0 | 11.0 | 0.00 | 0.02 | 0.00 | 54 | 1011.2 |
| 20260507155603 | 72 | 125 | 4.0 | 13.0 | 0.00 | 0.02 | 0.00 | 54 | 1011.2 |
| 20260507155501 | 72 | 131 | 8.0 | 13.0 | 0.00 | 0.02 | 0.00 | 56 | 1011.1 |
| 20260507155403 | 72 | 76 | 5.0 | 13.0 | 0.00 | 0.02 | 0.00 | 55 | 1011.1 |
| 20260507155306 | 72 | 72 | 7.0 | 13.0 | 0.00 | 0.02 | 0.00 | 54 | 1011.1 |
| 20260507155201 | 72 | 107 | 9.0 | 13.0 | 0.00 | 0.02 | 0.00 | 53 | 1011.1 |
| 20260507155100 | 72 | 136 | 8.0 | 13.0 | 0.00 | 0.02 | 0.00 | 53 | 1011.1 |
| 20260507155006 | 72 | 132 | 8.0 | 13.0 | 0.00 | 0.02 | 0.00 | 53 | 1011.1 |
| 20260507154900 | 72 | 101 | 7.0 | 13.0 | 0.00 | 0.02 | 0.00 | 53 | 1011.1 |
| 20260507154801 | 72 | 121 | 10.0 | 13.0 | 0.00 | 0.02 | 0.00 | 53 | 1011.2 |
| 20260507154704 | 72 | 108 | 10.0 | 12.0 | 0.00 | 0.02 | 0.00 | 52 | 1011.1 |
| 20260507154602 | 72 | 107 | 10.0 | 12.0 | 0.00 | 0.02 | 0.00 | 52 | 1011.2 |
| 20260507154502 | 72 | 89 | 7.0 | 12.0 | 0.00 | 0.02 | 0.00 | 53 | 1011.2 |
| 20260507154407 | 72 | 126 | 6.0 | 12.0 | 0.00 | 0.02 | 0.00 | 51 | 1011.2 |
| 20260507154315 | 72 | 103 | 9.0 | 12.0 | 0.00 | 0.02 | 0.00 | 53 | 1011.2 |
| 20260507154200 | 72 | 82 | 6.0 | 12.0 | 0.00 | 0.02 | 0.00 | 56 | 1011.2 |
| 20260507154103 | 72 | 84 | 8.0 | 12.0 | 0.00 | 0.02 | 0.00 | 54 | 1011.2 |
| 20260507154005 | 72 | 88 | 11.0 | 12.0 | 0.00 | 0.02 | 0.00 | 56 | 1011.2 |
| 20260507153900 | 72 | 74 | 8.0 | 14.0 | 0.00 | 0.02 | 0.00 | 54 | 1011.2 |
| 20260507153803 | 72 | 63 | 5.0 | 14.0 | 0.00 | 0.02 | 0.00 | 54 | 1011.2 |
| 20260507153702 | 72 | 78 | 8.0 | 14.0 | 0.00 | 0.02 | 0.00 | 54 | 1011.3 |
| 20260507153600 | 72 | 76 | 10.0 | 14.0 | 0.00 | 0.02 | 0.00 | 54 | 1011.2 |
| 20260507153504 | 72 | 72 | 11.0 | 14.0 | 0.00 | 0.02 | 0.00 | 53 | 1011.2 |
| 20260507153401 | 72 | 59 | 8.0 | 14.0 | 0.00 | 0.02 | 0.00 | 56 | 1011.2 |
| 20260507153303 | 72 | 71 | 12.0 | 14.0 | 0.00 | 0.02 | 0.00 | 55 | 1011.2 |
| 20260507153203 | 72 | 78 | 8.0 | 14.0 | 0.00 | 0.02 | 0.00 | 55 | 1011.3 |
| 20260507153103 | 72 | 139 | 5.0 | 14.0 | 0.00 | 0.02 | 0.00 | 54 | 1011.2 |
| 20260507153002 | 72 | 88 | 10.0 | 14.0 | 0.00 | 0.02 | 0.00 | 56 | 1011.2 |
| 20260507152903 | 72 | 93 | 13.0 | 13.0 | 0.00 | 0.02 | 0.00 | 57 | 1011.2 |
| 20260507152803 | 72 | 78 | 7.0 | 13.0 | 0.00 | 0.02 | 0.00 | 57 | 1011.2 |
| 20260507152701 | 72 | 94 | 8.0 | 13.0 | 0.00 | 0.02 | 0.00 | 57 | 1011.2 |
| 20260507152603 | 71 | 91 | 10.0 | 13.0 | 0.00 | 0.02 | 0.00 | 58 | 1011.3 |
| 20260507152501 | 71 | 93 | 9.0 | 13.0 | 0.00 | 0.02 | 0.00 | 57 | 1011.3 |
| 20260507152400 | 71 | 85 | 5.0 | 14.0 | 0.00 | 0.02 | 0.00 | 57 | 1011.3 |
| 20260507152306 | 71 | 84 | 8.0 | 14.0 | 0.00 | 0.02 | 0.00 | 56 | 1011.3 |
| 20260507152202 | 71 | 137 | 9.0 | 14.0 | 0.00 | 0.02 | 0.00 | 57 | 1011.3 |
| 20260507152100 | 71 | 109 | 4.0 | 14.0 | 0.00 | 0.02 | 0.00 | 56 | 1011.3 |
| 20260507152006 | 71 | 126 | 9.0 | 14.0 | 0.00 | 0.02 | 0.00 | 55 | 1011.3 |
| 20260507151903 | 71 | 128 | 8.0 | 12.0 | 0.00 | 0.02 | 0.00 | 55 | 1011.3 |
| 20260507151501 | 71 | 141 | 6.0 | 12.0 | 0.00 | 0.02 | 0.00 | 56 | 1011.4 |
| 20260507151408 | 71 | 140 | 8.0 | 12.0 | 0.00 | 0.02 | 0.00 | 57 | 1011.4 |
| 20260507151302 | 71 | 144 | 10.0 | 12.0 | 0.00 | 0.02 | 0.00 | 59 | 1011.3 |
| 20260507151204 | 71 | 109 | 5.0 | 13.0 | 0.00 | 0.02 | 0.00 | 58 | 1011.3 |
| 20260507151103 | 71 | 94 | 10.0 | 13.0 | 0.00 | 0.02 | 0.00 | 55 | 1011.3 |
| 20260507151005 | 71 | 130 | 8.0 | 14.0 | 0.00 | 0.02 | 0.00 | 56 | 1011.3 |
| 20260507150900 | 71 | 110 | 8.0 | 16.0 | 0.00 | 0.02 | 0.00 | 57 | 1011.4 |
| 20260507150803 | 71 | 123 | 10.0 | 16.0 | 0.00 | 0.02 | 0.00 | 58 | 1011.4 |
| 20260507150701 | 70 | 96 | 8.0 | 16.0 | 0.00 | 0.02 | 0.00 | 57 | 1011.4 |
| 20260507150506 | 70 | 78 | 8.0 | 16.0 | 0.00 | 0.02 | 0.00 | 58 | 1011.4 |
| 20260507150406 | 70 | 78 | 5.0 | 16.0 | 0.00 | 0.02 | 0.00 | 60 | 1011.4 |
| 20260507150313 | 69 | 101 | 13.0 | 16.0 | 0.00 | 0.02 | 0.00 | 59 | 1011.4 |
| 20260507150207 | 69 | 60 | 9.0 | 16.0 | 0.00 | 0.02 | 0.00 | 59 | 1011.4 |
| 20260507150104 | 69 | 46 | 6.0 | 16.0 | 0.00 | 0.02 | 0.00 | 60 | 1011.4 |
| 20260507150006 | 69 | 65 | 13.0 | 16.0 | 0.00 | 0.02 | 0.00 | 59 | 1011.5 |
| 20260507145700 | 69 | 84 | 11.0 | 15.0 | 0.00 | 0.06 | 0.00 | 59 | 1011.5 |
| 20260507145603 | 69 | 62 | 14.0 | 15.0 | 0.00 | 0.06 | 0.00 | 60 | 1011.5 |
| 20260507145502 | 69 | 91 | 8.0 | 14.0 | 0.00 | 0.06 | 0.00 | 60 | 1011.5 |
| 20260507145400 | 69 | 80 | 7.0 | 16.0 | 0.00 | 0.06 | 0.00 | 61 | 1011.5 |
| 20260507145306 | 69 | 90 | 8.0 | 16.0 | 0.00 | 0.06 | 0.00 | 61 | 1011.5 |
| 20260507145202 | 69 | 96 | 8.0 | 16.0 | 0.00 | 0.06 | 0.00 | 59 | 1011.5 |
| 20260507145101 | 69 | 78 | 9.0 | 16.0 | 0.00 | 0.06 | 0.00 | 60 | 1011.5 |
| 20260507145008 | 69 | 62 | 10.0 | 16.0 | 0.00 | 0.06 | 0.00 | 60 | 1011.5 |
| 20260507144903 | 69 | 52 | 8.0 | 16.0 | 0.00 | 0.06 | 0.00 | 59 | 1011.5 |
| 20260507144801 | 69 | 79 | 9.0 | 16.0 | 0.00 | 0.06 | 0.00 | 59 | 1011.5 |
| 20260507144703 | 69 | 71 | 8.0 | 16.0 | 0.00 | 0.06 | 0.00 | 58 | 1011.5 |
| 20260507144500 | 68 | 73 | 13.0 | 16.0 | 0.00 | 0.06 | 0.00 | 60 | 1011.5 |
| 20260507144403 | 68 | 66 | 11.0 | 16.0 | 0.00 | 0.06 | 0.00 | 60 | 1011.5 |
| 20260507144303 | 68 | 80 | 11.0 | 16.0 | 0.00 | 0.06 | 0.00 | 60 | 1011.5 |
| 20260507144004 | 68 | 86 | 16.0 | 16.0 | 0.00 | 0.06 | 0.00 | 61 | 1011.5 |
| 20260507143803 | 69 | 51 | 10.0 | 13.0 | 0.00 | 0.06 | 0.00 | 61 | 1011.5 |
| 20260507143702 | 69 | 61 | 7.0 | 14.0 | 0.00 | 0.06 | 0.00 | 61 | 1011.5 |
| 20260507143600 | 68 | 69 | 8.0 | 16.0 | 0.00 | 0.06 | 0.00 | 60 | 1011.5 |
| 20260507143505 | 69 | 72 | 12.0 | 16.0 | 0.00 | 0.06 | 0.00 | 60 | 1011.5 |
| 20260507143402 | 69 | 84 | 9.0 | 16.0 | 0.00 | 0.06 | 0.00 | 60 | 1011.4 |
| 20260507143300 | 69 | 85 | 11.0 | 16.0 | 0.00 | 0.06 | 0.00 | 60 | 1011.4 |
| 20260507143219 | 69 | 74 | 8.0 | 16.0 | 0.00 | 0.06 | 0.00 | 60 | 1011.4 |
| 20260507143102 | 69 | 63 | 13.0 | 16.0 | 0.00 | 0.06 | 0.00 | 60 | 1011.4 |
| 20260507143002 | 69 | 21 | 6.0 | 16.0 | 0.00 | 0.06 | 0.00 | 59 | 1011.4 |
| 20260507142903 | 69 | 36 | 9.0 | 16.0 | 0.00 | 0.06 | 0.00 | 59 | 1011.4 |
| 20260507142803 | 69 | 59 | 8.0 | 16.0 | 0.00 | 0.06 | 0.00 | 59 | 1011.5 |
| 20260507142701 | 69 | 71 | 14.0 | 16.0 | 0.00 | 0.06 | 0.00 | 60 | 1011.4 |
| 20260507142602 | 69 | 59 | 9.0 | 15.0 | 0.00 | 0.06 | 0.00 | 60 | 1011.4 |
| 20260507142400 | 69 | 49 | 7.0 | 15.0 | 0.00 | 0.06 | 0.00 | 60 | 1011.4 |
| 20260507142203 | 69 | 47 | 8.0 | 15.0 | 0.00 | 0.06 | 0.00 | 58 | 1011.4 |
| 20260507142100 | 69 | 78 | 8.0 | 15.0 | 0.00 | 0.06 | 0.00 | 60 | 1011.4 |
| 20260507142004 | 69 | 38 | 10.0 | 15.0 | 0.00 | 0.06 | 0.00 | 59 | 1011.4 |
| 20260507141903 | 69 | 43 | 7.0 | 15.0 | 0.00 | 0.06 | 0.00 | 58 | 1011.4 |
| 20260507141801 | 69 | 71 | 14.0 | 15.0 | 0.00 | 0.06 | 0.00 | 59 | 1011.4 |
| 20260507141703 | 69 | 70 | 11.0 | 14.0 | 0.00 | 0.06 | 0.00 | 58 | 1011.4 |
| 20260507141500 | 70 | 51 | 11.0 | 14.0 | 0.00 | 0.06 | 0.00 | 56 | 1011.4 |
| 20260507141403 | 70 | 38 | 7.0 | 14.0 | 0.00 | 0.06 | 0.00 | 56 | 1011.4 |
| 20260507141302 | 70 | 38 | 10.0 | 14.0 | 0.00 | 0.06 | 0.00 | 56 | 1011.4 |
| 20260507141102 | 70 | 45 | 6.0 | 14.0 | 0.00 | 0.06 | 0.00 | 58 | 1011.4 |
| 20260507141007 | 70 | 42 | 9.0 | 14.0 | 0.00 | 0.06 | 0.00 | 59 | 1011.4 |
| 20260507140901 | 70 | 60 | 11.0 | 14.0 | 0.00 | 0.06 | 0.00 | 59 | 1011.4 |
| 20260507140804 | 70 | 33 | 6.0 | 14.0 | 0.00 | 0.06 | 0.00 | 59 | 1011.4 |
| 20260507140703 | 69 | 53 | 9.0 | 14.0 | 0.00 | 0.06 | 0.00 | 57 | 1011.4 |
| 20260507140600 | 70 | 46 | 8.0 | 14.0 | 0.00 | 0.06 | 0.00 | 58 | 1011.4 |
| 20260507140403 | 70 | 42 | 11.0 | 14.0 | 0.00 | 0.06 | 0.00 | 59 | 1011.4 |
| 20260507140259 | 70 | 80 | 14.0 | 14.0 | 0.00 | 0.06 | 0.00 | 58 | 1011.5 |
| 20260507140117 | 70 | 70 | 11.0 | 14.0 | 0.00 | 0.06 | 0.00 | 58 | 1011.4 |
| 20260507140009 | 70 | 39 | 8.0 | 14.0 | 0.00 | 0.06 | 0.00 | 58 | 1011.4 |
| 20260507135800 | 70 | 53 | 9.0 | 14.0 | 0.00 | 0.06 | 0.00 | 57 | 1011.4 |
| 20260507135703 | 70 | 57 | 5.0 | 16.0 | 0.00 | 0.06 | 0.00 | 58 | 1011.4 |
| 20260507135603 | 71 | 18 | 7.0 | 16.0 | 0.00 | 0.06 | 0.00 | 58 | 1011.4 |
| 20260507135500 | 71 | 46 | 5.0 | 16.0 | 0.00 | 0.06 | 0.00 | 57 | 1011.4 |
| 20260507135402 | 71 | 42 | 7.0 | 16.0 | 0.00 | 0.06 | 0.00 | 55 | 1011.5 |
| 20260507135306 | 71 | 45 | 10.0 | 16.0 | 0.00 | 0.06 | 0.00 | 55 | 1011.5 |
| 20260507135159 | 72 | 55 | 13.0 | 16.0 | 0.00 | 0.06 | 0.00 | 56 | 1011.5 |
| 20260507135103 | 72 | 85 | 15.0 | 16.0 | 0.00 | 0.06 | 0.00 | 56 | 1011.5 |
| 20260507135006 | 72 | 46 | 12.0 | 16.0 | 0.00 | 0.06 | 0.00 | 54 | 1011.5 |
| 20260507134901 | 72 | 89 | 13.0 | 16.0 | 0.00 | 0.06 | 0.00 | 55 | 1011.4 |
| 20260507134703 | 73 | 74 | 11.0 | 16.0 | 0.00 | 0.06 | 0.00 | 54 | 1011.5 |
| 20260507134404 | 74 | 69 | 11.0 | 13.0 | 0.00 | 0.06 | 0.00 | 48 | 1011.5 |
| 20260507134300 | 74 | 74 | 8.0 | 10.0 | 0.00 | 0.06 | 0.00 | 47 | 1011.4 |
| 20260507134103 | 74 | 138 | 2.0 | 8.0 | 0.00 | 0.06 | 0.00 | 43 | 1011.5 |
| 20260507134017 | 74 | 181 | 5.0 | 8.0 | 0.00 | 0.06 | 0.00 | 44 | 1011.5 |
| 20260507133803 | 74 | 130 | 3.0 | 11.0 | 0.00 | 0.06 | 0.00 | 49 | 1011.5 |
| 20260507133603 | 74 | 140 | 3.0 | 11.0 | 0.00 | 0.06 | 0.00 | 48 | 1011.5 |
| 20260507133400 | 74 | 140 | 1.0 | 11.0 | 0.00 | 0.06 | 0.00 | 47 | 1011.5 |
| 20260507133203 | 74 | 158 | 4.0 | 11.0 | 0.00 | 0.06 | 0.00 | 46 | 1011.4 |
| 20260507133101 | 74 | 194 | 5.0 | 11.0 | 0.00 | 0.06 | 0.00 | 46 | 1011.4 |
| 20260507133006 | 75 | 171 | 3.0 | 11.0 | 0.00 | 0.06 | 0.00 | 47 | 1011.4 |
| 20260507132801 | 75 | 171 | 4.0 | 7.0 | 0.00 | 0.06 | 0.00 | 45 | 1011.4 |
| 20260507132702 | 75 | 161 | 2.0 | 7.0 | 0.00 | 0.06 | 0.00 | 45 | 1011.4 |
| 20260507132603 | 75 | 131 | 5.0 | 7.0 | 0.00 | 0.06 | 0.00 | 53 | 1011.4 |
| 20260507132404 | 74 | 79 | 6.0 | 8.0 | 0.00 | 0.06 | 0.00 | 45 | 1011.4 |
| 20260507132306 | 74 | 79 | 1.0 | 8.0 | 0.00 | 0.06 | 0.00 | 45 | 1011.4 |
| 20260507132200 | 74 | 69 | 2.0 | 8.0 | 0.00 | 0.06 | 0.00 | 45 | 1011.4 |
| 20260507132107 | 74 | 49 | 0.0 | 8.0 | 0.00 | 0.06 | 0.00 | 44 | 1011.4 |
| 20260507132009 | 74 | 49 | 1.0 | 8.0 | 0.00 | 0.06 | 0.00 | 51 | 1011.5 |
| 20260507131900 | 74 | 67 | 5.0 | 8.0 | 0.00 | 0.06 | 0.00 | 47 | 1011.5 |
| 20260507131802 | 74 | 82 | 6.0 | 9.0 | 0.00 | 0.06 | 0.00 | 45 | 1011.5 |
| 20260507131703 | 74 | 105 | 3.0 | 9.0 | 0.00 | 0.06 | 0.00 | 44 | 1011.5 |
| 20260507131600 | 74 | 225 | 4.0 | 9.0 | 0.00 | 0.06 | 0.00 | 47 | 1011.5 |
| 20260507131503 | 74 | 191 | 3.0 | 9.0 | 0.00 | 0.06 | 0.00 | 45 | 1011.5 |
| 20260507131403 | 74 | 130 | 4.0 | 9.0 | 0.00 | 0.06 | 0.00 | 48 | 1011.5 |
| 20260507131301 | 74 | 140 | 5.0 | 9.0 | 0.00 | 0.06 | 0.00 | 44 | 1011.5 |
| 20260507131202 | 74 | 144 | 4.0 | 9.0 | 0.00 | 0.06 | 0.00 | 47 | 1011.5 |
| 20260507131016 | 74 | 86 | 2.0 | 9.0 | 0.00 | 0.06 | 0.00 | 46 | 1011.5 |
| 20260507130903 | 74 | 60 | 4.0 | 9.0 | 0.00 | 0.06 | 0.00 | 50 | 1011.5 |
| 20260507130803 | 74 | 61 | 5.0 | 9.0 | 0.00 | 0.06 | 0.00 | 49 | 1011.5 |
| 20260507130700 | 74 | 83 | 7.0 | 7.0 | 0.00 | 0.06 | 0.00 | 49 | 1011.5 |
| 20260507130603 | 74 | 121 | 3.0 | 7.0 | 0.00 | 0.06 | 0.00 | 46 | 1011.5 |
| 20260507130400 | 73 | 165 | 2.0 | 5.0 | 0.00 | 0.06 | 0.00 | 47 | 1011.5 |
| 20260507130306 | 73 | 174 | 0.0 | 8.0 | 0.00 | 0.06 | 0.00 | 46 | 1011.5 |
| 20260507130202 | 73 | 174 | 1.0 | 8.0 | 0.00 | 0.06 | 0.00 | 46 | 1011.5 |
| 20260507130101 | 73 | 174 | 1.0 | 8.0 | 0.00 | 0.06 | 0.00 | 47 | 1011.6 |
| 20260507130007 | 73 | 167 | 1.0 | 8.0 | 0.00 | 0.06 | 0.00 | 48 | 1011.6 |
| 20260507125903 | 73 | 180 | 2.0 | 8.0 | 0.00 | 0.06 | 0.00 | 45 | 1011.6 |
| 20260507125802 | 73 | 180 | 2.0 | 8.0 | 0.00 | 0.06 | 0.00 | 45 | 1011.5 |
| 20260507125703 | 73 | 135 | 2.0 | 8.0 | 0.00 | 0.06 | 0.00 | 45 | 1011.5 |
| 20260507125501 | 74 | 128 | 1.0 | 8.0 | 0.00 | 0.06 | 0.00 | 48 | 1011.5 |
| 20260507125404 | 74 | 133 | 5.0 | 10.0 | 0.00 | 0.06 | 0.00 | 49 | 1011.5 |
| 20260507125307 | 74 | 134 | 6.0 | 11.0 | 0.00 | 0.06 | 0.00 | 46 | 1011.5 |
| 20260507125201 | 74 | 81 | 1.0 | 11.0 | 0.00 | 0.06 | 0.00 | 47 | 1011.5 |
| 20260507125103 | 74 | 133 | 2.0 | 11.0 | 0.00 | 0.06 | 0.00 | 43 | 1011.5 |
| 20260507125006 | 74 | 133 | 2.0 | 11.0 | 0.00 | 0.06 | 0.00 | 43 | 1011.5 |
| 20260507124900 | 74 | 133 | 2.0 | 11.0 | 0.00 | 0.06 | 0.00 | 46 | 1011.5 |
| 20260507124803 | 75 | 107 | 2.0 | 11.0 | 0.00 | 0.06 | 0.00 | 48 | 1011.5 |
| 20260507124703 | 75 | 99 | 3.0 | 11.0 | 0.00 | 0.06 | 0.00 | 48 | 1011.5 |
| 20260507124602 | 75 | 82 | 6.0 | 11.0 | 0.00 | 0.06 | 0.00 | 49 | 1011.5 |
| 20260507124505 | 75 | 61 | 7.0 | 11.0 | 0.00 | 0.06 | 0.00 | 49 | 1011.5 |
| 20260507124402 | 75 | 56 | 8.0 | 11.0 | 0.00 | 0.06 | 0.00 | 47 | 1011.5 |
| 20260507124301 | 75 | 63 | 5.0 | 9.0 | 0.00 | 0.06 | 0.00 | 45 | 1011.5 |
| 20260507124159 | 75 | 82 | 5.0 | 8.0 | 0.00 | 0.06 | 0.00 | 48 | 1011.6 |
| 20260507124004 | 75 | 106 | 2.0 | 8.0 | 0.00 | 0.06 | 0.00 | 50 | 1011.6 |
| 20260507123900 | 75 | 73 | 8.0 | 8.0 | 0.00 | 0.06 | 0.00 | 49 | 1011.5 |
| 20260507123806 | 75 | 114 | 4.0 | 7.0 | 0.00 | 0.06 | 0.00 | 50 | 1011.5 |
| 20260507123702 | 75 | 59 | 2.0 | 7.0 | 0.00 | 0.06 | 0.00 | 47 | 1011.6 |
| 20260507123505 | 75 | 175 | 2.0 | 8.0 | 0.00 | 0.06 | 0.00 | 46 | 1011.6 |
| 20260507123300 | 74 | 111 | 1.0 | 8.0 | 0.00 | 0.06 | 0.00 | 44 | 1011.6 |
| 20260507123002 | 74 | 140 | 3.0 | 8.0 | 0.00 | 0.06 | 0.00 | 50 | 1011.6 |
| 20260507122903 | 74 | 127 | 1.0 | 8.0 | 0.00 | 0.06 | 0.00 | 46 | 1011.7 |
| 20260507122802 | 74 | 127 | 4.0 | 8.0 | 0.00 | 0.06 | 0.00 | 45 | 1011.6 |
| 20260507122659 | 74 | 124 | 3.0 | 8.0 | 0.00 | 0.06 | 0.00 | 43 | 1011.7 |
| 20260507122606 | 74 | 175 | 4.0 | 8.0 | 0.00 | 0.06 | 0.00 | 43 | 1011.7 |
| 20260507122503 | 74 | 184 | 7.0 | 8.0 | 0.00 | 0.06 | 0.00 | 45 | 1011.6 |
| 20260507122359 | 75 | 168 | 2.0 | 6.0 | 0.00 | 0.06 | 0.00 | 43 | 1011.6 |
| 20260507122201 | 74 | 198 | 4.0 | 6.0 | 0.00 | 0.06 | 0.00 | 50 | 1011.6 |
| 20260507122004 | 74 | 276 | 2.0 | 6.0 | 0.00 | 0.06 | 0.00 | 47 | 1011.6 |
| 20260507121900 | 74 | 258 | 3.0 | 6.0 | 0.00 | 0.06 | 0.00 | 47 | 1011.6 |
| 20260507121800 | 74 | 310 | 2.0 | 6.0 | 0.00 | 0.06 | 0.00 | 50 | 1011.6 |
| 20260507121601 | 74 | 302 | 4.0 | 6.0 | 0.00 | 0.06 | 0.00 | 47 | 1011.6 |
| 20260507121501 | 74 | 287 | 5.0 | 6.0 | 0.00 | 0.06 | 0.00 | 47 | 1011.6 |
| 20260507121404 | 74 | 279 | 0.0 | 6.0 | 0.00 | 0.06 | 0.00 | 45 | 1011.6 |
| 20260507121300 | 74 | 279 | 3.0 | 6.0 | 0.00 | 0.06 | 0.00 | 46 | 1011.7 |
| 20260507121200 | 74 | 321 | 2.0 | 6.0 | 0.00 | 0.06 | 0.00 | 50 | 1011.7 |
| 20260507121102 | 74 | 299 | 2.0 | 7.0 | 0.00 | 0.06 | 0.00 | 49 | 1011.7 |
| 20260507121025 | 74 | 299 | 3.0 | 7.0 | 0.00 | 0.06 | 0.00 | 49 | 1011.7 |
| 20260507120900 | 74 | 251 | 3.0 | 7.0 | 0.00 | 0.06 | 0.00 | 50 | 1011.7 |
| 20260507120804 | 74 | 232 | 4.0 | 7.0 | 0.00 | 0.06 | 0.00 | 52 | 1011.7 |
| 20260507120701 | 74 | 153 | 3.0 | 7.0 | 0.00 | 0.06 | 0.00 | 50 | 1011.7 |
| 20260507120601 | 74 | 182 | 1.0 | 7.0 | 0.00 | 0.06 | 0.00 | 53 | 1011.7 |
| 20260507120505 | 73 | 190 | 2.0 | 7.0 | 0.00 | 0.06 | 0.00 | 46 | 1011.7 |
| 20260507120400 | 74 | 234 | 3.0 | 7.0 | 0.00 | 0.06 | 0.00 | 49 | 1011.7 |
| 20260507120300 | 73 | 253 | 2.0 | 7.0 | 0.00 | 0.06 | 0.00 | 52 | 1011.7 |
| 20260507120159 | 73 | 291 | 5.0 | 7.0 | 0.00 | 0.06 | 0.00 | 48 | 1011.7 |
| 20260507120133 | 73 | 280 | 3.0 | 7.0 | 0.00 | 0.06 | 0.00 | 48 | 1011.7 |
| 20260507115908 | 73 | 220 | 6.0 | 7.0 | 0.00 | 0.06 | 0.00 | 49 | 1011.7 |
| 20260507115601 | 73 | 18 | 2.0 | 6.0 | 0.00 | 0.06 | 0.00 | 46 | 1011.8 |
| 20260507115501 | 73 | 34 | 4.0 | 6.0 | 0.00 | 0.06 | 0.00 | 49 | 1011.7 |
| 20260507115401 | 73 | 30 | 2.0 | 8.0 | 0.00 | 0.06 | 0.00 | 45 | 1011.8 |
| 20260507115159 | 73 | 44 | 3.0 | 8.0 | 0.00 | 0.06 | 0.00 | 49 | 1011.8 |
| 20260507115100 | 73 | 44 | 2.0 | 8.0 | 0.00 | 0.06 | 0.00 | 47 | 1011.8 |
| 20260507115004 | 73 | 44 | 3.0 | 8.0 | 0.00 | 0.06 | 0.00 | 47 | 1011.8 |
| 20260507114900 | 73 | 20 | 2.0 | 8.0 | 0.00 | 0.06 | 0.00 | 47 | 1011.8 |
| 20260507114800 | 73 | 41 | 4.0 | 8.0 | 0.00 | 0.06 | 0.00 | 49 | 1011.9 |
| 20260507114600 | 73 | 81 | 5.0 | 8.0 | 0.00 | 0.06 | 0.00 | 49 | 1011.8 |
| 20260507114501 | 73 | 77 | 4.0 | 8.0 | 0.00 | 0.06 | 0.00 | 49 | 1011.8 |
| 20260507114159 | 72 | 342 | 1.0 | 7.0 | 0.00 | 0.06 | 0.00 | 48 | 1011.9 |
| 20260507114102 | 73 | 342 | 1.0 | 7.0 | 0.00 | 0.06 | 0.00 | 48 | 1011.9 |
| 20260507114002 | 73 | 342 | 2.0 | 7.0 | 0.00 | 0.06 | 0.00 | 49 | 1011.9 |
| 20260507113900 | 73 | 339 | 3.0 | 7.0 | 0.00 | 0.06 | 0.00 | 54 | 1011.9 |
| 20260507113803 | 73 | 348 | 3.0 | 7.0 | 0.00 | 0.06 | 0.00 | 47 | 1011.8 |
| 20260507113700 | 73 | 47 | 4.0 | 7.0 | 0.00 | 0.06 | 0.00 | 49 | 1011.9 |
| 20260507113600 | 73 | 47 | 3.0 | 7.0 | 0.00 | 0.06 | 0.00 | 46 | 1011.9 |
| 20260507113359 | 73 | 63 | 2.0 | 7.0 | 0.00 | 0.06 | 0.00 | 53 | 1011.9 |
| 20260507113259 | 73 | 62 | 3.0 | 7.0 | 0.00 | 0.06 | 0.00 | 54 | 1011.9 |
| 20260507113202 | 73 | 79 | 6.0 | 7.0 | 0.00 | 0.06 | 0.00 | 54 | 1011.9 |
| 20260507113059 | 72 | 76 | 3.0 | 6.0 | 0.00 | 0.06 | 0.00 | 50 | 1011.9 |
| 20260507113003 | 72 | 117 | 3.0 | 6.0 | 0.00 | 0.06 | 0.00 | 50 | 1011.9 |
| 20260507112902 | 72 | 119 | 2.0 | 7.0 | 0.00 | 0.06 | 0.00 | 50 | 1012.0 |
| 20260507112701 | 72 | 175 | 3.0 | 7.0 | 0.00 | 0.06 | 0.00 | 50 | 1012.0 |
| 20260507112603 | 72 | 178 | 3.0 | 7.0 | 0.00 | 0.06 | 0.00 | 47 | 1012.0 |
| 20260507112459 | 72 | 185 | 1.0 | 7.0 | 0.00 | 0.06 | 0.00 | 50 | 1012.0 |
| 20260507112359 | 72 | 173 | 1.0 | 7.0 | 0.00 | 0.06 | 0.00 | 55 | 1012.0 |
| 20260507112306 | 72 | 173 | 2.0 | 8.0 | 0.00 | 0.06 | 0.00 | 54 | 1012.1 |
| 20260507112200 | 71 | 173 | 0.0 | 8.0 | 0.00 | 0.06 | 0.00 | 53 | 1012.1 |
| 20260507112004 | 71 | 163 | 2.0 | 8.0 | 0.00 | 0.06 | 0.00 | 52 | 1012.1 |
| 20260507111900 | 71 | 188 | 7.0 | 8.0 | 0.00 | 0.06 | 0.00 | 55 | 1012.1 |
| 20260507111800 | 71 | 312 | 1.0 | 8.0 | 0.00 | 0.06 | 0.00 | 53 | 1012.1 |
| 20260507111704 | 71 | 314 | 4.0 | 8.0 | 0.00 | 0.06 | 0.00 | 50 | 1012.1 |
| 20260507111600 | 71 | 250 | 3.0 | 8.0 | 0.00 | 0.06 | 0.00 | 53 | 1012.1 |
| 20260507111500 | 71 | 294 | 3.0 | 8.0 | 0.00 | 0.06 | 0.00 | 54 | 1012.1 |
| 20260507111406 | 71 | 329 | 3.0 | 8.0 | 0.00 | 0.06 | 0.00 | 54 | 1012.1 |
| 20260507111300 | 71 | 286 | 6.0 | 8.0 | 0.00 | 0.06 | 0.00 | 54 | 1012.1 |
| 20260507111159 | 71 | 261 | 6.0 | 6.0 | 0.00 | 0.06 | 0.00 | 54 | 1012.1 |
| 20260507111105 | 71 | 248 | 3.0 | 6.0 | 0.00 | 0.06 | 0.00 | 53 | 1012.1 |
| 20260507111032 | 71 | 267 | 2.0 | 6.0 | 0.00 | 0.06 | 0.00 | 53 | 1012.1 |
| 20260507110900 | 71 | 267 | 1.0 | 6.0 | 0.00 | 0.06 | 0.00 | 53 | 1012.1 |
| 20260507110804 | 71 | 267 | 1.0 | 8.0 | 0.00 | 0.06 | 0.00 | 52 | 1012.1 |
| 20260507110700 | 71 | 267 | 2.0 | 8.0 | 0.00 | 0.06 | 0.00 | 54 | 1012.1 |
| 20260507110600 | 71 | 282 | 1.0 | 8.0 | 0.00 | 0.06 | 0.00 | 55 | 1012.1 |
| 20260507110504 | 71 | 290 | 4.0 | 8.0 | 0.00 | 0.06 | 0.00 | 54 | 1012.1 |
| 20260507110359 | 70 | 230 | 5.0 | 8.0 | 0.00 | 0.06 | 0.00 | 54 | 1012.2 |
| 20260507110202 | 70 | 244 | 4.0 | 8.0 | 0.00 | 0.06 | 0.00 | 54 | 1012.2 |
| 20260507110100 | 70 | 239 | 5.0 | 8.0 | 0.00 | 0.06 | 0.00 | 56 | 1012.2 |
| 20260507110020 | 70 | 227 | 4.0 | 8.0 | 0.00 | 0.06 | 0.00 | 54 | 1012.2 |
| 20260507105903 | 70 | 227 | 3.0 | 8.0 | 0.00 | 0.06 | 0.00 | 54 | 1012.2 |
| 20260507105802 | 70 | 200 | 4.0 | 6.0 | 0.00 | 0.06 | 0.00 | 52 | 1012.2 |
| 20260507105701 | 70 | 233 | 3.0 | 9.0 | 0.00 | 0.06 | 0.00 | 51 | 1012.2 |
| 20260507105609 | 71 | 225 | 5.0 | 9.0 | 0.00 | 0.06 | 0.00 | 53 | 1012.2 |
| 20260507105500 | 71 | 235 | 4.0 | 10.0 | 0.00 | 0.06 | 0.00 | 53 | 1012.3 |
| 20260507105359 | 71 | 216 | 2.0 | 10.0 | 0.00 | 0.06 | 0.00 | 53 | 1012.3 |
| 20260507105159 | 71 | 217 | 3.0 | 10.0 | 0.00 | 0.06 | 0.00 | 54 | 1012.3 |
| 20260507105059 | 71 | 258 | 4.0 | 10.0 | 0.00 | 0.06 | 0.00 | 55 | 1012.2 |
| 20260507105043 | 71 | 274 | 4.0 | 10.0 | 0.00 | 0.06 | 0.00 | 55 | 1012.2 |
| 20260507104910 | 71 | 240 | 2.0 | 10.0 | 0.00 | 0.06 | 0.00 | 53 | 1012.3 |
| 20260507104801 | 71 | 238 | 6.0 | 10.0 | 0.00 | 0.06 | 0.00 | 58 | 1012.3 |
| 20260507104703 | 71 | 271 | 4.0 | 10.0 | 0.00 | 0.06 | 0.00 | 57 | 1012.3 |
| 20260507104501 | 71 | 252 | 5.0 | 9.0 | 0.00 | 0.06 | 0.00 | 58 | 1012.2 |
| 20260507104404 | 71 | 278 | 4.0 | 8.0 | 0.00 | 0.06 | 0.00 | 56 | 1012.2 |
| 20260507104300 | 71 | 236 | 2.0 | 8.0 | 0.00 | 0.06 | 0.00 | 55 | 1012.2 |
| 20260507104200 | 71 | 165 | 2.0 | 8.0 | 0.00 | 0.06 | 0.00 | 55 | 1012.3 |
| 20260507104104 | 71 | 203 | 1.0 | 8.0 | 0.00 | 0.06 | 0.00 | 52 | 1012.3 |
| 20260507104001 | 71 | 186 | 6.0 | 8.0 | 0.00 | 0.06 | 0.00 | 52 | 1012.3 |
| 20260507103900 | 71 | 205 | 4.0 | 9.0 | 0.00 | 0.06 | 0.00 | 53 | 1012.3 |
| 20260507103803 | 71 | 214 | 5.0 | 10.0 | 0.00 | 0.06 | 0.00 | 53 | 1012.3 |
| 20260507103701 | 71 | 244 | 4.0 | 10.0 | 0.00 | 0.06 | 0.00 | 53 | 1012.4 |
| 20260507103601 | 71 | 328 | 3.0 | 10.0 | 0.00 | 0.06 | 0.00 | 54 | 1012.4 |
| 20260507103503 | 71 | 293 | 1.0 | 10.0 | 0.00 | 0.06 | 0.00 | 54 | 1012.4 |
| 20260507103400 | 71 | 248 | 0.0 | 10.0 | 0.00 | 0.06 | 0.00 | 57 | 1012.4 |
| 20260507103300 | 71 | 335 | 2.0 | 10.0 | 0.00 | 0.06 | 0.00 | 56 | 1012.4 |
| 20260507103100 | 71 | 273 | 3.0 | 10.0 | 0.00 | 0.06 | 0.00 | 59 | 1012.4 |
| 20260507103001 | 71 | 267 | 4.0 | 10.0 | 0.00 | 0.06 | 0.00 | 55 | 1012.4 |
| 20260507102903 | 71 | 273 | 6.0 | 10.0 | 0.00 | 0.06 | 0.00 | 55 | 1012.4 |
| 20260507102800 | 70 | 257 | 5.0 | 10.0 | 0.00 | 0.06 | 0.00 | 56 | 1012.4 |
| 20260507102701 | 70 | 210 | 3.0 | 10.0 | 0.00 | 0.06 | 0.00 | 51 | 1012.3 |
| 20260507102459 | 70 | 186 | 3.0 | 10.0 | 0.00 | 0.06 | 0.00 | 52 | 1012.3 |
| 20260507102307 | 71 | 222 | 7.0 | 10.0 | 0.00 | 0.06 | 0.00 | 53 | 1012.3 |
| 20260507102200 | 70 | 229 | 4.0 | 9.0 | 0.00 | 0.06 | 0.00 | 52 | 1012.4 |
| 20260507102100 | 71 | 303 | 6.0 | 9.0 | 0.00 | 0.06 | 0.00 | 56 | 1012.5 |
| 20260507102007 | 71 | 286 | 7.0 | 9.0 | 0.00 | 0.06 | 0.00 | 53 | 1012.5 |
| 20260507101901 | 71 | 273 | 5.0 | 11.0 | 0.00 | 0.06 | 0.00 | 53 | 1012.4 |
| 20260507101808 | 71 | 304 | 5.0 | 12.0 | 0.00 | 0.06 | 0.00 | 54 | 1012.4 |
| 20260507101703 | 71 | 246 | 5.0 | 12.0 | 0.00 | 0.06 | 0.00 | 54 | 1012.4 |
| 20260507101600 | 70 | 213 | 4.0 | 12.0 | 0.00 | 0.06 | 0.00 | 53 | 1012.4 |
| 20260507101500 | 70 | 180 | 3.0 | 12.0 | 0.00 | 0.06 | 0.00 | 54 | 1012.4 |
| 20260507101402 | 70 | 222 | 2.0 | 12.0 | 0.00 | 0.06 | 0.00 | 51 | 1012.4 |
| 20260507101201 | 70 | 236 | 8.0 | 12.0 | 0.00 | 0.06 | 0.00 | 54 | 1012.4 |
| 20260507101101 | 70 | 193 | 6.0 | 12.0 | 0.00 | 0.06 | 0.00 | 52 | 1012.4 |
| 20260507100901 | 70 | 180 | 9.0 | 12.0 | 0.00 | 0.06 | 0.00 | 55 | 1012.4 |
| 20260507100803 | 70 | 176 | 5.0 | 8.0 | 0.00 | 0.06 | 0.00 | 52 | 1012.4 |
| 20260507100700 | 70 | 171 | 7.0 | 9.0 | 0.00 | 0.06 | 0.00 | 54 | 1012.4 |
| 20260507100600 | 70 | 174 | 4.0 | 9.0 | 0.00 | 0.06 | 0.00 | 54 | 1012.4 |
| 20260507100401 | 70 | 179 | 3.0 | 12.0 | 0.00 | 0.06 | 0.00 | 51 | 1012.4 |
| 20260507100301 | 70 | 166 | 3.0 | 12.0 | 0.00 | 0.06 | 0.00 | 56 | 1012.4 |
| 20260507100203 | 70 | 166 | 5.0 | 12.0 | 0.00 | 0.06 | 0.00 | 52 | 1012.5 |
| 20260507100124 | 70 | 200 | 5.0 | 12.0 | 0.00 | 0.06 | 0.00 | 51 | 1012.5 |
| 20260507100006 | 70 | 207 | 3.0 | 12.0 | 0.00 | 0.06 | 0.00 | 51 | 1012.5 |
| 20260507095900 | 70 | 314 | 2.0 | 12.0 | 0.00 | 0.06 | 0.00 | 49 | 1012.5 |
| 20260507095803 | 70 | 217 | 2.0 | 12.0 | 0.00 | 0.06 | 0.00 | 52 | 1012.5 |
| 20260507095700 | 70 | 215 | 7.0 | 12.0 | 0.00 | 0.06 | 0.00 | 55 | 1012.5 |
| 20260507095600 | 70 | 211 | 7.0 | 12.0 | 0.00 | 0.06 | 0.00 | 55 | 1012.5 |
| 20260507095503 | 70 | 225 | 9.0 | 12.0 | 0.00 | 0.06 | 0.00 | 55 | 1012.5 |
| 20260507095400 | 70 | 213 | 9.0 | 11.0 | 0.00 | 0.06 | 0.00 | 54 | 1012.5 |
| 20260507095301 | 70 | 208 | 5.0 | 11.0 | 0.00 | 0.06 | 0.00 | 55 | 1012.5 |
| 20260507095204 | 70 | 165 | 2.0 | 11.0 | 0.00 | 0.06 | 0.00 | 57 | 1012.5 |
| 20260507095100 | 70 | 161 | 3.0 | 11.0 | 0.00 | 0.06 | 0.00 | 55 | 1012.6 |
| 20260507094759 | 70 | 211 | 9.0 | 11.0 | 0.00 | 0.06 | 0.00 | 57 | 1012.5 |
| 20260507094700 | 70 | 215 | 7.0 | 10.0 | 0.00 | 0.06 | 0.00 | 57 | 1012.5 |
| 20260507094604 | 70 | 186 | 4.0 | 10.0 | 0.00 | 0.06 | 0.00 | 58 | 1012.5 |
| 20260507094501 | 70 | 164 | 3.0 | 10.0 | 0.00 | 0.06 | 0.00 | 56 | 1012.5 |
| 20260507094400 | 70 | 159 | 6.0 | 12.0 | 0.00 | 0.06 | 0.00 | 55 | 1012.5 |
| 20260507094304 | 70 | 201 | 6.0 | 12.0 | 0.00 | 0.06 | 0.00 | 57 | 1012.5 |
| 20260507094201 | 69 | 198 | 7.0 | 13.0 | 0.00 | 0.06 | 0.00 | 55 | 1012.4 |
| 20260507094059 | 69 | 188 | 3.0 | 13.0 | 0.00 | 0.06 | 0.00 | 56 | 1012.5 |
| 20260507093800 | 69 | 184 | 6.0 | 16.0 | 0.00 | 0.06 | 0.00 | 57 | 1012.5 |
| 20260507093707 | 69 | 265 | 3.0 | 17.0 | 0.00 | 0.06 | 0.00 | 55 | 1012.5 |
| 20260507093601 | 69 | 199 | 9.0 | 17.0 | 0.00 | 0.06 | 0.00 | 56 | 1012.5 |
| 20260507093501 | 69 | 209 | 5.0 | 19.0 | 0.00 | 0.06 | 0.00 | 54 | 1012.5 |
| 20260507093405 | 69 | 212 | 12.0 | 19.0 | 0.00 | 0.06 | 0.00 | 55 | 1012.5 |
| 20260507093302 | 69 | 178 | 12.0 | 19.0 | 0.00 | 0.06 | 0.00 | 55 | 1012.5 |
| 20260507093201 | 69 | 186 | 8.0 | 19.0 | 0.00 | 0.06 | 0.00 | 55 | 1012.5 |
| 20260507093107 | 69 | 182 | 10.0 | 19.0 | 0.00 | 0.06 | 0.00 | 57 | 1012.5 |
| 20260507092959 | 69 | 186 | 7.0 | 19.0 | 0.00 | 0.06 | 0.00 | 57 | 1012.5 |
| 20260507092900 | 69 | 183 | 12.0 | 19.0 | 0.00 | 0.06 | 0.00 | 58 | 1012.6 |
| 20260507092803 | 69 | 180 | 14.0 | 19.0 | 0.00 | 0.06 | 0.00 | 57 | 1012.5 |
| 20260507092700 | 69 | 196 | 10.0 | 19.0 | 0.00 | 0.06 | 0.00 | 54 | 1012.5 |
| 20260507092601 | 69 | 196 | 9.0 | 19.0 | 0.00 | 0.06 | 0.00 | 58 | 1012.5 |
| 20260507092503 | 69 | 186 | 18.0 | 19.0 | 0.00 | 0.06 | 0.00 | 59 | 1012.5 |
| 20260507092401 | 69 | 185 | 8.0 | 14.0 | 0.00 | 0.06 | 0.00 | 59 | 1012.5 |
| 20260507092300 | 69 | 173 | 5.0 | 14.0 | 0.00 | 0.06 | 0.00 | 57 | 1012.5 |
| 20260507092203 | 69 | 288 | 1.0 | 14.0 | 0.00 | 0.06 | 0.00 | 54 | 1012.5 |
| 20260507092100 | 69 | 282 | 4.0 | 14.0 | 0.00 | 0.06 | 0.00 | 56 | 1012.5 |
| 20260507092001 | 69 | 290 | 4.0 | 14.0 | 0.00 | 0.06 | 0.00 | 54 | 1012.6 |
| 20260507091902 | 69 | 250 | 9.0 | 14.0 | 0.00 | 0.06 | 0.00 | 58 | 1012.6 |
| 20260507091800 | 69 | 277 | 5.0 | 14.0 | 0.00 | 0.06 | 0.00 | 58 | 1012.6 |
| 20260507091500 | 69 | 231 | 10.0 | 14.0 | 0.00 | 0.06 | 0.00 | 59 | 1012.6 |
| 20260507091400 | 69 | 242 | 7.0 | 11.0 | 0.00 | 0.06 | 0.00 | 60 | 1012.5 |
| 20260507091302 | 69 | 219 | 9.0 | 15.0 | 0.00 | 0.06 | 0.00 | 56 | 1012.5 |
| 20260507091200 | 69 | 205 | 7.0 | 17.0 | 0.00 | 0.06 | 0.00 | 57 | 1012.5 |
| 20260507091100 | 69 | 173 | 7.0 | 17.0 | 0.00 | 0.06 | 0.00 | 55 | 1012.5 |
| 20260507091007 | 69 | 203 | 8.0 | 17.0 | 0.00 | 0.06 | 0.00 | 58 | 1012.5 |
| 20260507090901 | 69 | 219 | 12.0 | 17.0 | 0.00 | 0.06 | 0.00 | 56 | 1012.5 |
| 20260507090802 | 69 | 196 | 9.0 | 17.0 | 0.00 | 0.06 | 0.00 | 58 | 1012.5 |
| 20260507090702 | 69 | 186 | 7.0 | 17.0 | 0.00 | 0.06 | 0.00 | 57 | 1012.5 |
| 20260507090600 | 69 | 188 | 8.0 | 17.0 | 0.00 | 0.06 | 0.00 | 58 | 1012.5 |
| 20260507090500 | 69 | 222 | 11.0 | 17.0 | 0.00 | 0.06 | 0.00 | 55 | 1012.5 |
| 20260507090403 | 69 | 262 | 7.0 | 17.0 | 0.00 | 0.06 | 0.00 | 58 | 1012.5 |
| 20260507090301 | 69 | 223 | 13.0 | 17.0 | 0.00 | 0.06 | 0.00 | 56 | 1012.6 |
| 20260507090201 | 69 | 190 | 5.0 | 12.0 | 0.00 | 0.06 | 0.00 | 61 | 1012.5 |
| 20260507090105 | 69 | 246 | 5.0 | 12.0 | 0.00 | 0.06 | 0.00 | 60 | 1012.5 |
| 20260507090007 | 69 | 235 | 3.0 | 12.0 | 0.00 | 0.06 | 0.00 | 56 | 1012.5 |
| 20260507085900 | 69 | 237 | 7.0 | 12.0 | 0.00 | 0.06 | 0.00 | 62 | 1012.6 |
| 20260507085719 | 69 | 261 | 9.0 | 12.0 | 0.00 | 0.06 | 0.00 | 56 | 1012.5 |
| 20260507085400 | 69 | 218 | 5.0 | 12.0 | 0.00 | 0.06 | 0.00 | 57 | 1012.5 |
| 20260507085300 | 68 | 170 | 5.0 | 12.0 | 0.00 | 0.06 | 0.00 | 57 | 1012.5 |
| 20260507085203 | 68 | 196 | 7.0 | 12.0 | 0.00 | 0.06 | 0.00 | 57 | 1012.5 |
| 20260507085100 | 68 | 199 | 7.0 | 12.0 | 0.00 | 0.06 | 0.00 | 56 | 1012.5 |
| 20260507085001 | 68 | 198 | 5.0 | 12.0 | 0.00 | 0.06 | 0.00 | 55 | 1012.5 |
| 20260507084800 | 68 | 186 | 7.0 | 10.0 | 0.00 | 0.06 | 0.00 | 60 | 1012.5 |
| 20260507084700 | 68 | 175 | 5.0 | 10.0 | 0.00 | 0.06 | 0.00 | 59 | 1012.6 |
| 20260507084602 | 68 | 228 | 8.0 | 8.0 | 0.00 | 0.06 | 0.00 | 59 | 1012.5 |
| 20260507084303 | 68 | 221 | 2.0 | 7.0 | 0.00 | 0.06 | 0.00 | 60 | 1012.5 |
| 20260507084200 | 68 | 302 | 2.0 | 7.0 | 0.00 | 0.06 | 0.00 | 60 | 1012.4 |
| 20260507084004 | 68 | 259 | 2.0 | 8.0 | 0.00 | 0.06 | 0.00 | 61 | 1012.4 |
| 20260507083900 | 68 | 241 | 2.0 | 8.0 | 0.00 | 0.06 | 0.00 | 59 | 1012.4 |
| 20260507083800 | 68 | 275 | 5.0 | 8.0 | 0.00 | 0.06 | 0.00 | 61 | 1012.3 |
| 20260507083703 | 68 | 207 | 4.0 | 8.0 | 0.00 | 0.06 | 0.00 | 58 | 1012.3 |
| 20260507083600 | 68 | 248 | 2.0 | 8.0 | 0.00 | 0.06 | 0.00 | 58 | 1012.3 |
| 20260507083500 | 68 | 312 | 3.0 | 8.0 | 0.00 | 0.06 | 0.00 | 60 | 1012.3 |
| 20260507083300 | 68 | 182 | 5.0 | 8.0 | 0.00 | 0.06 | 0.00 | 58 | 1012.3 |
| 20260507083105 | 68 | 240 | 5.0 | 7.0 | 0.00 | 0.06 | 0.00 | 62 | 1012.3 |
| 20260507082913 | 67 | 161 | 1.0 | 7.0 | 0.00 | 0.06 | 0.00 | 56 | 1012.3 |
| 20260507082812 | 67 | 292 | 4.0 | 7.0 | 0.00 | 0.06 | 0.00 | 57 | 1012.3 |
| 20260507082603 | 67 | 263 | 2.0 | 7.0 | 0.00 | 0.06 | 0.00 | 57 | 1012.3 |
| 20260507082400 | 67 | 288 | 3.0 | 7.0 | 0.00 | 0.06 | 0.00 | 59 | 1012.2 |
| 20260507082306 | 67 | 198 | 6.0 | 7.0 | 0.00 | 0.06 | 0.00 | 57 | 1012.2 |
| 20260507082100 | 67 | 277 | 2.0 | 6.0 | 0.00 | 0.06 | 0.00 | 56 | 1012.3 |
| 20260507082007 | 67 | 209 | 3.0 | 6.0 | 0.00 | 0.06 | 0.00 | 55 | 1012.3 |
| 20260507081901 | 67 | 210 | 3.0 | 6.0 | 0.00 | 0.06 | 0.00 | 58 | 1012.2 |
| 20260507081800 | 67 | 225 | 1.0 | 7.0 | 0.00 | 0.06 | 0.00 | 58 | 1012.2 |
| 20260507081707 | 67 | 275 | 2.0 | 8.0 | 0.00 | 0.06 | 0.00 | 60 | 1012.2 |
| 20260507081601 | 67 | 275 | 1.0 | 8.0 | 0.00 | 0.06 | 0.00 | 58 | 1012.3 |
| 20260507081500 | 67 | 197 | 4.0 | 8.0 | 0.00 | 0.06 | 0.00 | 57 | 1012.3 |
| 20260507081402 | 67 | 234 | 2.0 | 9.0 | 0.00 | 0.06 | 0.00 | 55 | 1012.2 |
| 20260507081302 | 67 | 248 | 5.0 | 9.0 | 0.00 | 0.06 | 0.00 | 56 | 1012.2 |
| 20260507081200 | 67 | 265 | 2.0 | 9.0 | 0.00 | 0.06 | 0.00 | 55 | 1012.2 |
| 20260507081004 | 67 | 251 | 5.0 | 9.0 | 0.00 | 0.06 | 0.00 | 56 | 1012.2 |
| 20260507080900 | 67 | 271 | 4.0 | 9.0 | 0.00 | 0.06 | 0.00 | 55 | 1012.2 |
| 20260507080802 | 67 | 258 | 4.0 | 12.0 | 0.00 | 0.06 | 0.00 | 58 | 1012.2 |
| 20260507080705 | 67 | 234 | 4.0 | 12.0 | 0.00 | 0.06 | 0.00 | 59 | 1012.2 |
| 20260507080559 | 67 | 211 | 5.0 | 12.0 | 0.00 | 0.06 | 0.00 | 59 | 1012.2 |
| 20260507080504 | 67 | 250 | 4.0 | 12.0 | 0.00 | 0.06 | 0.00 | 59 | 1012.2 |
| 20260507080401 | 67 | 244 | 5.0 | 12.0 | 0.00 | 0.06 | 0.00 | 60 | 1012.2 |
| 20260507080300 | 67 | 255 | 5.0 | 12.0 | 0.00 | 0.06 | 0.00 | 61 | 1012.2 |
| 20260507080203 | 67 | 209 | 6.0 | 12.0 | 0.00 | 0.06 | 0.00 | 60 | 1012.2 |
| 20260507080116 | 67 | 242 | 7.0 | 12.0 | 0.00 | 0.06 | 0.00 | 59 | 1012.2 |
| 20260507080007 | 67 | 238 | 4.0 | 12.0 | 0.00 | 0.06 | 0.00 | 59 | 1012.3 |
| 20260507075902 | 67 | 220 | 7.0 | 12.0 | 0.00 | 0.06 | 0.00 | 59 | 1012.2 |
| 20260507075702 | 67 | 220 | 8.0 | 8.0 | 0.00 | 0.06 | 0.00 | 61 | 1012.2 |
| 20260507075620 | 67 | 219 | 6.0 | 8.0 | 0.00 | 0.06 | 0.00 | 61 | 1012.2 |
| 20260507075500 | 67 | 225 | 4.0 | 8.0 | 0.00 | 0.06 | 0.00 | 58 | 1012.2 |
| 20260507075306 | 67 | 267 | 6.0 | 8.0 | 0.00 | 0.06 | 0.00 | 60 | 1012.1 |
| 20260507075159 | 66 | 224 | 3.0 | 7.0 | 0.00 | 0.06 | 0.00 | 61 | 1012.2 |
| 20260507075101 | 66 | 279 | 3.0 | 8.0 | 0.00 | 0.06 | 0.00 | 58 | 1012.2 |
| 20260507075005 | 66 | 210 | 5.0 | 8.0 | 0.00 | 0.06 | 0.00 | 58 | 1012.2 |
| 20260507074801 | 66 | 290 | 5.0 | 8.0 | 0.00 | 0.06 | 0.00 | 58 | 1012.1 |
| 20260507074702 | 66 | 268 | 2.0 | 8.0 | 0.00 | 0.06 | 0.00 | 57 | 1012.2 |
| 20260507074600 | 66 | 266 | 2.0 | 8.0 | 0.00 | 0.06 | 0.00 | 57 | 1012.2 |
| 20260507074502 | 66 | 292 | 5.0 | 8.0 | 0.00 | 0.06 | 0.00 | 56 | 1012.2 |
| 20260507074403 | 66 | 268 | 4.0 | 8.0 | 0.00 | 0.06 | 0.00 | 57 | 1012.1 |
| 20260507074301 | 66 | 222 | 4.0 | 8.0 | 0.00 | 0.06 | 0.00 | 55 | 1012.2 |
| 20260507074202 | 66 | 220 | 5.0 | 8.0 | 0.00 | 0.06 | 0.00 | 54 | 1012.2 |
| 20260507074102 | 66 | 234 | 7.0 | 8.0 | 0.00 | 0.06 | 0.00 | 57 | 1012.2 |
| 20260507074000 | 66 | 252 | 3.0 | 7.0 | 0.00 | 0.06 | 0.00 | 56 | 1012.1 |
| 20260507073902 | 66 | 216 | 6.0 | 8.0 | 0.00 | 0.06 | 0.00 | 57 | 1012.2 |
| 20260507073803 | 66 | 259 | 4.0 | 8.0 | 0.00 | 0.06 | 0.00 | 57 | 1012.2 |
| 20260507073700 | 66 | 244 | 6.0 | 8.0 | 0.00 | 0.06 | 0.00 | 58 | 1012.2 |
| 20260507073503 | 66 | 271 | 2.0 | 8.0 | 0.00 | 0.06 | 0.00 | 58 | 1012.2 |
| 20260507073400 | 66 | 215 | 4.0 | 8.0 | 0.00 | 0.06 | 0.00 | 60 | 1012.2 |
| 20260507073303 | 66 | 273 | 4.0 | 8.0 | 0.00 | 0.06 | 0.00 | 60 | 1012.1 |
| 20260507073202 | 66 | 228 | 3.0 | 8.0 | 0.00 | 0.06 | 0.00 | 61 | 1012.1 |
| 20260507073100 | 65 | 284 | 6.0 | 8.0 | 0.00 | 0.06 | 0.00 | 61 | 1012.1 |
| 20260507073000 | 65 | 265 | 3.0 | 8.0 | 0.00 | 0.06 | 0.00 | 59 | 1012.1 |
| 20260507072904 | 65 | 265 | 7.0 | 9.0 | 0.00 | 0.06 | 0.00 | 59 | 1012.1 |
| 20260507072800 | 66 | 252 | 6.0 | 9.0 | 0.00 | 0.06 | 0.00 | 58 | 1012.1 |
| 20260507072702 | 66 | 270 | 4.0 | 9.0 | 0.00 | 0.06 | 0.00 | 60 | 1012.2 |
| 20260507072620 | 65 | 278 | 4.0 | 9.0 | 0.00 | 0.06 | 0.00 | 60 | 1012.2 |
| 20260507072501 | 65 | 207 | 3.0 | 9.0 | 0.00 | 0.06 | 0.00 | 59 | 1012.2 |
| 20260507072400 | 65 | 202 | 5.0 | 9.0 | 0.00 | 0.06 | 0.00 | 60 | 1012.2 |
| 20260507072201 | 65 | 234 | 5.0 | 9.0 | 0.00 | 0.06 | 0.00 | 60 | 1012.3 |
| 20260507072100 | 65 | 219 | 8.0 | 9.0 | 0.00 | 0.06 | 0.00 | 60 | 1012.3 |
| 20260507072005 | 65 | 213 | 5.0 | 9.0 | 0.00 | 0.06 | 0.00 | 62 | 1012.3 |
| 20260507071900 | 65 | 224 | 7.0 | 8.0 | 0.00 | 0.06 | 0.00 | 63 | 1012.3 |
| 20260507071801 | 65 | 232 | 2.0 | 7.0 | 0.00 | 0.06 | 0.00 | 63 | 1012.3 |
| 20260507071707 | 65 | 263 | 5.0 | 7.0 | 0.00 | 0.06 | 0.00 | 62 | 1012.3 |
| 20260507071610 | 65 | 260 | 3.0 | 7.0 | 0.00 | 0.06 | 0.00 | 64 | 1012.2 |
| 20260507071506 | 65 | 215 | 3.0 | 7.0 | 0.00 | 0.06 | 0.00 | 62 | 1012.2 |
| 20260507071402 | 65 | 215 | 3.0 | 7.0 | 0.00 | 0.06 | 0.00 | 60 | 1012.2 |
| 20260507071300 | 65 | 215 | 3.0 | 7.0 | 0.00 | 0.06 | 0.00 | 60 | 1012.3 |
| 20260507071202 | 65 | 227 | 5.0 | 7.0 | 0.00 | 0.06 | 0.00 | 60 | 1012.2 |
| 20260507071001 | 65 | 221 | 5.0 | 8.0 | 0.00 | 0.06 | 0.00 | 61 | 1012.3 |
| 20260507070901 | 65 | 217 | 3.0 | 8.0 | 0.00 | 0.06 | 0.00 | 63 | 1012.2 |
| 20260507070703 | 65 | 214 | 2.0 | 8.0 | 0.00 | 0.06 | 0.00 | 64 | 1012.2 |
| 20260507070600 | 65 | 221 | 4.0 | 8.0 | 0.00 | 0.06 | 0.00 | 62 | 1012.2 |
| 20260507070503 | 64 | 221 | 4.0 | 8.0 | 0.00 | 0.06 | 0.00 | 62 | 1012.2 |
| 20260507070400 | 64 | 214 | 5.0 | 8.0 | 0.00 | 0.06 | 0.00 | 63 | 1012.2 |
| 20260507070300 | 64 | 199 | 5.0 | 8.0 | 0.00 | 0.06 | 0.00 | 62 | 1012.2 |
| 20260507070204 | 64 | 224 | 7.0 | 8.0 | 0.00 | 0.06 | 0.00 | 63 | 1012.2 |
| 20260507070100 | 64 | 232 | 5.0 | 8.0 | 0.00 | 0.06 | 0.00 | 62 | 1012.2 |
| 20260507065905 | 64 | 221 | 6.0 | 8.0 | 0.00 | 0.06 | 0.00 | 64 | 1012.1 |
| 20260507065700 | 64 | 236 | 6.0 | 8.0 | 0.00 | 0.06 | 0.00 | 66 | 1012.1 |
| 20260507065605 | 64 | 259 | 3.0 | 8.0 | 0.00 | 0.06 | 0.00 | 64 | 1012.1 |
| 20260507065400 | 64 | 257 | 3.0 | 8.0 | 0.00 | 0.06 | 0.00 | 65 | 1012.1 |
| 20260507065306 | 64 | 246 | 4.0 | 8.0 | 0.00 | 0.06 | 0.00 | 63 | 1012.1 |
| 20260507065200 | 64 | 209 | 4.0 | 8.0 | 0.00 | 0.06 | 0.00 | 65 | 1012.1 |
| 20260507065059 | 64 | 223 | 6.0 | 8.0 | 0.00 | 0.06 | 0.00 | 65 | 1012.1 |
| 20260507065004 | 63 | 224 | 6.0 | 8.0 | 0.00 | 0.06 | 0.00 | 64 | 1012.1 |
| 20260507064900 | 63 | 211 | 7.0 | 9.0 | 0.00 | 0.06 | 0.00 | 66 | 1012.1 |
| 20260507064802 | 63 | 226 | 5.0 | 9.0 | 0.00 | 0.06 | 0.00 | 65 | 1012.1 |
| 20260507064702 | 63 | 262 | 3.0 | 9.0 | 0.00 | 0.06 | 0.00 | 64 | 1012.1 |
| 20260507064500 | 63 | 232 | 7.0 | 9.0 | 0.00 | 0.06 | 0.00 | 67 | 1012.1 |
| 20260507064259 | 63 | 211 | 6.0 | 9.0 | 0.00 | 0.06 | 0.00 | 66 | 1012.1 |
| 20260507064200 | 63 | 226 | 6.0 | 9.0 | 0.00 | 0.06 | 0.00 | 66 | 1012.1 |
| 20260507064103 | 63 | 218 | 5.0 | 9.0 | 0.00 | 0.06 | 0.00 | 66 | 1012.0 |
| 20260507064000 | 63 | 239 | 7.0 | 9.0 | 0.00 | 0.06 | 0.00 | 67 | 1012.0 |
| 20260507063859 | 63 | 232 | 5.0 | 9.0 | 0.00 | 0.06 | 0.00 | 67 | 1012.0 |
| 20260507063802 | 63 | 220 | 7.0 | 9.0 | 0.00 | 0.06 | 0.00 | 66 | 1012.0 |
| 20260507063600 | 62 | 257 | 5.0 | 9.0 | 0.00 | 0.06 | 0.00 | 67 | 1012.0 |
| 20260507063504 | 62 | 264 | 6.0 | 9.0 | 0.00 | 0.06 | 0.00 | 67 | 1012.0 |
| 20260507063300 | 62 | 234 | 3.0 | 9.0 | 0.00 | 0.06 | 0.00 | 67 | 1011.9 |
| 20260507063100 | 62 | 254 | 4.0 | 9.0 | 0.00 | 0.06 | 0.00 | 67 | 1011.9 |
| 20260507063000 | 62 | 226 | 6.0 | 9.0 | 0.00 | 0.06 | 0.00 | 68 | 1011.9 |
| 20260507062903 | 62 | 227 | 7.0 | 8.0 | 0.00 | 0.06 | 0.00 | 67 | 1011.9 |
| 20260507062800 | 62 | 268 | 5.0 | 8.0 | 0.00 | 0.06 | 0.00 | 68 | 1011.9 |
| 20260507062703 | 62 | 260 | 4.0 | 8.0 | 0.00 | 0.06 | 0.00 | 69 | 1011.9 |
| 20260507062602 | 62 | 257 | 5.0 | 8.0 | 0.00 | 0.06 | 0.00 | 70 | 1011.9 |
| 20260507062500 | 62 | 265 | 5.0 | 8.0 | 0.00 | 0.06 | 0.00 | 71 | 1011.9 |
| 20260507062400 | 62 | 244 | 6.0 | 6.0 | 0.00 | 0.06 | 0.00 | 71 | 1011.9 |
| 20260507062305 | 61 | 240 | 3.0 | 5.0 | 0.00 | 0.06 | 0.00 | 70 | 1011.9 |
| 20260507062200 | 61 | 262 | 3.0 | 5.0 | 0.00 | 0.06 | 0.00 | 70 | 1011.9 |
| 20260507062059 | 61 | 269 | 4.0 | 5.0 | 0.00 | 0.06 | 0.00 | 72 | 1011.9 |
| 20260507061900 | 61 | 223 | 3.0 | 6.0 | 0.00 | 0.06 | 0.00 | 70 | 1011.9 |
| 20260507061800 | 61 | 246 | 3.0 | 6.0 | 0.00 | 0.06 | 0.00 | 71 | 1011.9 |
| 20260507061703 | 61 | 262 | 4.0 | 6.0 | 0.00 | 0.06 | 0.00 | 73 | 1011.9 |
| 20260507061500 | 61 | 258 | 2.0 | 6.0 | 0.00 | 0.06 | 0.00 | 71 | 1011.8 |
| 20260507061402 | 61 | 258 | 1.0 | 6.0 | 0.00 | 0.06 | 0.00 | 71 | 1011.8 |
| 20260507061301 | 60 | 257 | 3.0 | 6.0 | 0.00 | 0.06 | 0.00 | 71 | 1011.8 |
| 20260507061200 | 60 | 260 | 4.0 | 6.0 | 0.00 | 0.06 | 0.00 | 72 | 1011.8 |
| 20260507061103 | 60 | 272 | 3.0 | 6.0 | 0.00 | 0.06 | 0.00 | 72 | 1011.8 |
| 20260507061000 | 60 | 263 | 4.0 | 6.0 | 0.00 | 0.06 | 0.00 | 72 | 1011.8 |
| 20260507060802 | 60 | 276 | 2.0 | 7.0 | 0.00 | 0.06 | 0.00 | 73 | 1011.8 |
| 20260507060700 | 60 | 245 | 5.0 | 7.0 | 0.00 | 0.06 | 0.00 | 73 | 1011.8 |
| 20260507060601 | 60 | 256 | 3.0 | 7.0 | 0.00 | 0.06 | 0.00 | 73 | 1011.8 |
| 20260507060502 | 60 | 260 | 4.0 | 7.0 | 0.00 | 0.06 | 0.00 | 74 | 1011.8 |
| 20260507060300 | 59 | 252 | 3.0 | 7.0 | 0.00 | 0.06 | 0.00 | 74 | 1011.8 |
| 20260507060119 | 59 | 274 | 6.0 | 7.0 | 0.00 | 0.06 | 0.00 | 75 | 1011.8 |
| 20260507060007 | 59 | 281 | 4.0 | 7.0 | 0.00 | 0.06 | 0.00 | 75 | 1011.8 |
| 20260507055903 | 59 | 296 | 5.0 | 6.0 | 0.00 | 0.08 | 0.00 | 76 | 1011.8 |
| 20260507055602 | 58 | 296 | 2.0 | 6.0 | 0.00 | 0.08 | 0.00 | 76 | 1011.8 |
| 20260507055502 | 58 | 300 | 6.0 | 6.0 | 0.00 | 0.08 | 0.00 | 76 | 1011.9 |
| 20260507055359 | 58 | 277 | 3.0 | 5.0 | 0.00 | 0.08 | 0.00 | 77 | 1011.8 |
| 20260507055305 | 58 | 289 | 2.0 | 5.0 | 0.00 | 0.08 | 0.00 | 76 | 1011.9 |
| 20260507055201 | 58 | 311 | 4.0 | 5.0 | 0.00 | 0.08 | 0.00 | 77 | 1011.8 |
| 20260507055100 | 58 | 311 | 4.0 | 5.0 | 0.00 | 0.08 | 0.00 | 77 | 1011.8 |
| 20260507055005 | 57 | 288 | 4.0 | 5.0 | 0.00 | 0.08 | 0.00 | 77 | 1011.8 |
| 20260507054759 | 57 | 298 | 3.0 | 4.0 | 0.00 | 0.08 | 0.00 | 79 | 1011.8 |
| 20260507054602 | 57 | 306 | 3.0 | 4.0 | 0.00 | 0.08 | 0.00 | 80 | 1011.8 |
| 20260507054500 | 57 | 306 | 1.0 | 4.0 | 0.00 | 0.08 | 0.00 | 80 | 1011.8 |
| 20260507054403 | 57 | 306 | 4.0 | 4.0 | 0.00 | 0.08 | 0.00 | 80 | 1011.8 |
| 20260507054302 | 57 | 319 | 4.0 | 4.0 | 0.00 | 0.08 | 0.00 | 80 | 1011.7 |
| 20260507054201 | 56 | 319 | 4.0 | 4.0 | 0.00 | 0.08 | 0.00 | 81 | 1011.8 |
| 20260507054104 | 56 | 319 | 3.0 | 4.0 | 0.00 | 0.08 | 0.00 | 81 | 1011.8 |
| 20260507054005 | 56 | 326 | 4.0 | 4.0 | 0.00 | 0.08 | 0.00 | 81 | 1011.8 |
| 20260507053802 | 56 | 320 | 2.0 | 4.0 | 0.00 | 0.08 | 0.00 | 81 | 1011.8 |
| 20260507053702 | 56 | 158 | 3.0 | 4.0 | 0.00 | 0.08 | 0.00 | 81 | 1011.7 |
| 20260507053600 | 56 | 158 | 2.0 | 4.0 | 0.00 | 0.08 | 0.00 | 81 | 1011.8 |
| 20260507053502 | 56 | 158 | 3.0 | 3.0 | 0.00 | 0.08 | 0.00 | 81 | 1011.7 |
| 20260507053402 | 56 | 158 | 2.0 | 3.0 | 0.00 | 0.08 | 0.00 | 81 | 1011.8 |
| 20260507053300 | 56 | 158 | 3.0 | 3.0 | 0.00 | 0.08 | 0.00 | 81 | 1011.7 |
| 20260507053203 | 56 | 158 | 2.0 | 4.0 | 0.00 | 0.08 | 0.00 | 81 | 1011.7 |
| 20260507053102 | 56 | 158 | 2.0 | 4.0 | 0.00 | 0.08 | 0.00 | 81 | 1011.7 |
| 20260507052801 | 55 | 158 | 2.0 | 4.0 | 0.00 | 0.08 | 0.00 | 81 | 1011.7 |
| 20260507052703 | 55 | 158 | 1.0 | 4.0 | 0.00 | 0.08 | 0.00 | 81 | 1011.7 |
| 20260507052604 | 55 | 158 | 2.0 | 4.0 | 0.00 | 0.08 | 0.00 | 82 | 1011.7 |
| 20260507052500 | 55 | 158 | 3.0 | 4.0 | 0.00 | 0.08 | 0.00 | 82 | 1011.7 |
| 20260507052413 | 55 | 158 | 3.0 | 4.0 | 0.00 | 0.08 | 0.00 | 82 | 1011.7 |
| 20260507052305 | 55 | 158 | 2.0 | 4.0 | 0.00 | 0.08 | 0.00 | 83 | 1011.7 |
| 20260507052159 | 55 | 158 | 3.0 | 4.0 | 0.00 | 0.08 | 0.00 | 83 | 1011.7 |
| 20260507052102 | 54 | 158 | 3.0 | 3.0 | 0.00 | 0.08 | 0.00 | 82 | 1011.7 |
| 20260507052006 | 54 | 158 | 1.0 | 3.0 | 0.00 | 0.08 | 0.00 | 83 | 1011.7 |
| 20260507051900 | 54 | 158 | 1.0 | 3.0 | 0.00 | 0.08 | 0.00 | 82 | 1011.7 |
| 20260507051803 | 54 | 158 | 2.0 | 3.0 | 0.00 | 0.08 | 0.00 | 82 | 1011.7 |
| 20260507051703 | 54 | 211 | 2.0 | 3.0 | 0.00 | 0.08 | 0.00 | 83 | 1011.6 |
| 20260507051600 | 54 | 211 | 0.0 | 4.0 | 0.00 | 0.08 | 0.00 | 83 | 1011.6 |
| 20260507051505 | 54 | 211 | 0.0 | 4.0 | 0.00 | 0.08 | 0.00 | 83 | 1011.6 |
| 20260507051403 | 54 | 211 | 0.0 | 4.0 | 0.00 | 0.08 | 0.00 | 83 | 1011.6 |
| 20260507051300 | 54 | 211 | 2.0 | 4.0 | 0.00 | 0.08 | 0.00 | 83 | 1011.6 |
| 20260507051201 | 54 | 211 | 1.0 | 5.0 | 0.00 | 0.08 | 0.00 | 83 | 1011.6 |
| 20260507051002 | 54 | 211 | 1.0 | 6.0 | 0.00 | 0.08 | 0.00 | 83 | 1011.6 |
| 20260507050902 | 54 | 211 | 1.0 | 6.0 | 0.00 | 0.08 | 0.00 | 83 | 1011.5 |
| 20260507050802 | 54 | 211 | 0.0 | 6.0 | 0.00 | 0.08 | 0.00 | 83 | 1011.6 |
| 20260507050700 | 53 | 211 | 2.0 | 6.0 | 0.00 | 0.08 | 0.00 | 83 | 1011.5 |
| 20260507050503 | 53 | 211 | 2.0 | 7.0 | 0.00 | 0.08 | 0.00 | 84 | 1011.5 |
| 20260507050401 | 53 | 208 | 1.0 | 7.0 | 0.00 | 0.08 | 0.00 | 84 | 1011.4 |
| 20260507050302 | 53 | 208 | 2.0 | 8.0 | 0.00 | 0.08 | 0.00 | 84 | 1011.4 |
| 20260507050006 | 53 | 209 | 6.0 | 8.0 | 0.00 | 0.08 | 0.00 | 84 | 1011.4 |
| 20260507045903 | 53 | 202 | 4.0 | 8.0 | 0.00 | 0.14 | 0.00 | 84 | 1011.3 |
| 20260507045800 | 53 | 205 | 5.0 | 8.0 | 0.00 | 0.14 | 0.00 | 85 | 1011.4 |
| 20260507045702 | 53 | 209 | 6.0 | 8.0 | 0.00 | 0.14 | 0.00 | 85 | 1011.3 |
| 20260507045604 | 53 | 197 | 5.0 | 8.0 | 0.00 | 0.14 | 0.00 | 85 | 1011.3 |
| 20260507045459 | 52 | 190 | 6.0 | 8.0 | 0.00 | 0.14 | 0.00 | 85 | 1011.3 |
| 20260507045359 | 52 | 189 | 7.0 | 8.0 | 0.00 | 0.14 | 0.00 | 85 | 1011.3 |
| 20260507045331 | 52 | 186 | 7.0 | 7.0 | 0.00 | 0.14 | 0.00 | 85 | 1011.3 |
| 20260507045159 | 52 | 205 | 5.0 | 7.0 | 0.00 | 0.14 | 0.00 | 85 | 1011.3 |
| 20260507045059 | 52 | 208 | 6.0 | 7.0 | 0.00 | 0.14 | 0.00 | 86 | 1011.3 |
| 20260507044900 | 52 | 207 | 5.0 | 7.0 | 0.00 | 0.14 | 0.00 | 86 | 1011.3 |
| 20260507044800 | 52 | 214 | 5.0 | 7.0 | 0.00 | 0.14 | 0.00 | 86 | 1011.3 |
| 20260507044559 | 51 | 209 | 6.0 | 7.0 | 0.00 | 0.14 | 0.00 | 86 | 1011.2 |
| 20260507044500 | 51 | 213 | 4.0 | 7.0 | 0.00 | 0.14 | 0.00 | 86 | 1011.3 |
| 20260507044402 | 51 | 215 | 6.0 | 7.0 | 0.00 | 0.14 | 0.00 | 85 | 1011.3 |
| 20260507044259 | 51 | 214 | 4.0 | 6.0 | 0.00 | 0.14 | 0.00 | 85 | 1011.3 |
| 20260507044102 | 51 | 213 | 4.0 | 6.0 | 0.00 | 0.14 | 0.00 | 85 | 1011.3 |
| 20260507044001 | 51 | 223 | 5.0 | 6.0 | 0.00 | 0.14 | 0.00 | 85 | 1011.3 |
| 20260507043900 | 51 | 227 | 4.0 | 6.0 | 0.00 | 0.14 | 0.00 | 85 | 1011.3 |
| 20260507043803 | 51 | 211 | 5.0 | 6.0 | 0.00 | 0.14 | 0.00 | 85 | 1011.3 |
| 20260507043700 | 51 | 207 | 5.0 | 6.0 | 0.00 | 0.14 | 0.00 | 85 | 1011.3 |
| 20260507043600 | 51 | 201 | 5.0 | 5.0 | 0.00 | 0.14 | 0.00 | 85 | 1011.2 |
| 20260507043503 | 51 | 199 | 4.0 | 5.0 | 0.00 | 0.14 | 0.00 | 85 | 1011.2 |
| 20260507043400 | 51 | 196 | 3.0 | 5.0 | 0.00 | 0.14 | 0.00 | 85 | 1011.2 |
| 20260507043259 | 51 | 196 | 4.0 | 5.0 | 0.00 | 0.14 | 0.00 | 85 | 1011.2 |
| 20260507043203 | 51 | 198 | 4.0 | 5.0 | 0.00 | 0.14 | 0.00 | 84 | 1011.2 |
| 20260507043111 | 51 | 208 | 4.0 | 5.0 | 0.00 | 0.14 | 0.00 | 84 | 1011.2 |
| 20260507043000 | 51 | 229 | 4.0 | 4.0 | 0.00 | 0.14 | 0.00 | 84 | 1011.2 |
| 20260507042905 | 51 | 200 | 3.0 | 4.0 | 0.00 | 0.14 | 0.00 | 84 | 1011.2 |
| 20260507042800 | 51 | 196 | 3.0 | 5.0 | 0.00 | 0.14 | 0.00 | 84 | 1011.2 |
| 20260507042713 | 51 | 196 | 2.0 | 5.0 | 0.00 | 0.14 | 0.00 | 84 | 1011.2 |
| 20260507042606 | 51 | 196 | 2.0 | 5.0 | 0.00 | 0.14 | 0.00 | 84 | 1011.2 |
| 20260507042500 | 51 | 196 | 3.0 | 5.0 | 0.00 | 0.14 | 0.00 | 84 | 1011.1 |
| 20260507042402 | 51 | 206 | 4.0 | 5.0 | 0.00 | 0.14 | 0.00 | 84 | 1011.2 |
| 20260507042307 | 51 | 200 | 3.0 | 5.0 | 0.00 | 0.14 | 0.00 | 84 | 1011.2 |
| 20260507042159 | 51 | 200 | 3.0 | 5.0 | 0.00 | 0.14 | 0.00 | 84 | 1011.1 |
| 20260507042102 | 51 | 200 | 1.0 | 5.0 | 0.00 | 0.14 | 0.00 | 84 | 1011.1 |
| 20260507042023 | 51 | 200 | 1.0 | 5.0 | 0.00 | 0.14 | 0.00 | 84 | 1011.1 |
| 20260507041901 | 51 | 200 | 4.0 | 5.0 | 0.00 | 0.14 | 0.00 | 84 | 1011.1 |
| 20260507041705 | 52 | 200 | 3.0 | 4.0 | 0.00 | 0.14 | 0.00 | 83 | 1011.1 |
| 20260507041600 | 52 | 200 | 3.0 | 4.0 | 0.00 | 0.14 | 0.00 | 83 | 1011.0 |
| 20260507041502 | 52 | 200 | 3.0 | 4.0 | 0.00 | 0.14 | 0.00 | 83 | 1011.1 |
| 20260507041403 | 52 | 184 | 2.0 | 4.0 | 0.00 | 0.14 | 0.00 | 83 | 1011.1 |
| 20260507041301 | 52 | 184 | 3.0 | 4.0 | 0.00 | 0.14 | 0.00 | 83 | 1011.1 |
| 20260507041201 | 52 | 184 | 3.0 | 4.0 | 0.00 | 0.14 | 0.00 | 83 | 1011.0 |
| 20260507041102 | 52 | 184 | 3.0 | 4.0 | 0.00 | 0.14 | 0.00 | 83 | 1011.0 |
| 20260507041000 | 52 | 184 | 3.0 | 4.0 | 0.00 | 0.14 | 0.00 | 83 | 1011.1 |
| 20260507040902 | 52 | 184 | 2.0 | 4.0 | 0.00 | 0.14 | 0.00 | 83 | 1011.0 |
| 20260507040802 | 52 | 184 | 2.0 | 5.0 | 0.00 | 0.14 | 0.00 | 83 | 1011.0 |
| 20260507040700 | 52 | 184 | 1.0 | 5.0 | 0.00 | 0.14 | 0.00 | 83 | 1011.1 |
| 20260507040605 | 52 | 184 | 1.0 | 5.0 | 0.00 | 0.14 | 0.00 | 83 | 1011.1 |
| 20260507040400 | 52 | 205 | 2.0 | 5.0 | 0.00 | 0.14 | 0.00 | 83 | 1011.0 |
| 20260507040301 | 52 | 205 | 1.0 | 5.0 | 0.00 | 0.14 | 0.00 | 83 | 1011.0 |
| 20260507040202 | 52 | 205 | 2.0 | 5.0 | 0.00 | 0.14 | 0.00 | 83 | 1011.0 |
| 20260507040117 | 52 | 192 | 3.0 | 5.0 | 0.00 | 0.14 | 0.00 | 82 | 1011.0 |
| 20260507040007 | 52 | 221 | 2.0 | 5.0 | 0.00 | 0.14 | 0.00 | 82 | 1010.9 |
| 20260507035759 | 52 | 232 | 2.0 | 4.0 | 0.00 | 0.35 | 0.00 | 82 | 1010.9 |
| 20260507035702 | 52 | 225 | 1.0 | 4.0 | 0.00 | 0.35 | 0.00 | 82 | 1011.0 |
| 20260507035500 | 52 | 245 | 2.0 | 3.0 | 0.00 | 0.35 | 0.00 | 82 | 1010.9 |
| 20260507035402 | 53 | 332 | 2.0 | 4.0 | 0.00 | 0.35 | 0.00 | 81 | 1010.9 |
| 20260507035200 | 53 | 332 | 0.0 | 6.0 | 0.00 | 0.35 | 0.00 | 81 | 1010.9 |
| 20260507035004 | 53 | 186 | 1.0 | 6.0 | 0.00 | 0.35 | 0.00 | 81 | 1010.9 |
| 20260507034859 | 53 | 186 | 0.0 | 6.0 | 0.00 | 0.35 | 0.00 | 81 | 1010.8 |
| 20260507034801 | 53 | 186 | 2.0 | 6.0 | 0.00 | 0.35 | 0.00 | 81 | 1010.8 |
| 20260507034702 | 53 | 186 | 1.0 | 6.0 | 0.00 | 0.35 | 0.00 | 80 | 1010.8 |
| 20260507034602 | 53 | 186 | 1.0 | 6.0 | 0.00 | 0.35 | 0.00 | 80 | 1010.7 |
| 20260507034502 | 53 | 186 | 3.0 | 6.0 | 0.00 | 0.35 | 0.00 | 79 | 1010.7 |
| 20260507034404 | 54 | 346 | 2.0 | 6.0 | 0.00 | 0.35 | 0.00 | 79 | 1010.6 |
| 20260507034300 | 54 | 344 | 5.0 | 6.0 | 0.00 | 0.35 | 0.00 | 78 | 1010.6 |
| 20260507034201 | 54 | 332 | 5.0 | 6.0 | 0.00 | 0.35 | 0.00 | 78 | 1010.7 |
| 20260507034107 | 54 | 344 | 4.0 | 6.0 | 0.00 | 0.35 | 0.00 | 78 | 1010.7 |
| 20260507034007 | 54 | 344 | 3.0 | 6.0 | 0.00 | 0.35 | 0.00 | 78 | 1010.6 |
| 20260507033901 | 54 | 345 | 4.0 | 6.0 | 0.00 | 0.35 | 0.00 | 77 | 1010.6 |
| 20260507033803 | 55 | 345 | 3.0 | 6.0 | 0.00 | 0.35 | 0.00 | 77 | 1010.6 |
| 20260507033700 | 55 | 325 | 3.0 | 6.0 | 0.00 | 0.35 | 0.00 | 77 | 1010.6 |
| 20260507033602 | 55 | 335 | 4.0 | 7.0 | 0.00 | 0.35 | 0.00 | 77 | 1010.6 |
| 20260507033401 | 55 | 319 | 5.0 | 7.0 | 0.00 | 0.35 | 0.00 | 77 | 1010.6 |
| 20260507033302 | 55 | 342 | 2.0 | 7.0 | 0.00 | 0.35 | 0.00 | 77 | 1010.6 |
| 20260507033204 | 55 | 332 | 3.0 | 7.0 | 0.00 | 0.35 | 0.00 | 77 | 1010.6 |
| 20260507033059 | 55 | 309 | 2.0 | 7.0 | 0.00 | 0.35 | 0.00 | 76 | 1010.6 |
| 20260507033002 | 55 | 309 | 3.0 | 7.0 | 0.00 | 0.35 | 0.00 | 76 | 1010.6 |
| 20260507032902 | 55 | 237 | 2.0 | 7.0 | 0.00 | 0.35 | 0.00 | 75 | 1010.6 |
| 20260507032801 | 55 | 237 | 2.0 | 7.0 | 0.00 | 0.35 | 0.00 | 75 | 1010.5 |
| 20260507032703 | 55 | 211 | 6.0 | 7.0 | 0.00 | 0.35 | 0.00 | 76 | 1010.5 |
| 20260507032501 | 55 | 242 | 2.0 | 7.0 | 0.00 | 0.35 | 0.00 | 76 | 1010.5 |
| 20260507032403 | 55 | 242 | 3.0 | 7.0 | 0.00 | 0.35 | 0.00 | 76 | 1010.5 |
| 20260507032305 | 55 | 225 | 4.0 | 7.0 | 0.00 | 0.35 | 0.00 | 76 | 1010.6 |
| 20260507032004 | 56 | 245 | 3.0 | 7.0 | 0.00 | 0.35 | 0.00 | 76 | 1010.6 |
| 20260507031901 | 56 | 242 | 3.0 | 7.0 | 0.00 | 0.35 | 0.00 | 75 | 1010.6 |
| 20260507031800 | 56 | 261 | 2.0 | 7.0 | 0.00 | 0.35 | 0.00 | 75 | 1010.6 |
| 20260507031600 | 56 | 286 | 4.0 | 7.0 | 0.00 | 0.35 | 0.00 | 75 | 1010.6 |
| 20260507031503 | 56 | 286 | 2.0 | 7.0 | 0.00 | 0.35 | 0.00 | 75 | 1010.5 |
| 20260507031402 | 56 | 306 | 5.0 | 7.0 | 0.00 | 0.35 | 0.00 | 74 | 1010.5 |
| 20260507031301 | 57 | 325 | 3.0 | 7.0 | 0.00 | 0.35 | 0.00 | 76 | 1010.5 |
| 20260507031104 | 57 | 316 | 4.0 | 7.0 | 0.00 | 0.35 | 0.00 | 74 | 1010.5 |
| 20260507031000 | 57 | 335 | 5.0 | 7.0 | 0.00 | 0.35 | 0.00 | 74 | 1010.6 |
| 20260507030903 | 57 | 334 | 4.0 | 7.0 | 0.00 | 0.35 | 0.00 | 74 | 1010.6 |
| 20260507030805 | 57 | 331 | 4.0 | 7.0 | 0.00 | 0.35 | 0.00 | 73 | 1010.6 |
| 20260507030659 | 57 | 320 | 5.0 | 7.0 | 0.00 | 0.35 | 0.00 | 73 | 1010.6 |
| 20260507030601 | 58 | 338 | 4.0 | 7.0 | 0.00 | 0.35 | 0.00 | 73 | 1010.6 |
| 20260507030400 | 58 | 355 | 3.0 | 7.0 | 0.00 | 0.35 | 0.00 | 73 | 1010.5 |
| 20260507030202 | 58 | 355 | 7.0 | 7.0 | 0.00 | 0.35 | 0.00 | 72 | 1010.5 |
| 20260507030100 | 58 | 348 | 5.0 | 7.0 | 0.00 | 0.35 | 0.00 | 72 | 1010.5 |
| 20260507030005 | 58 | 13 | 3.0 | 8.0 | 0.00 | 0.35 | 0.00 | 71 | 1010.4 |
| 20260507025902 | 58 | 355 | 4.0 | 8.0 | 0.00 | 0.37 | 0.00 | 71 | 1010.4 |
| 20260507025759 | 59 | 12 | 6.0 | 8.0 | 0.00 | 0.37 | 0.00 | 68 | 1010.4 |
| 20260507025702 | 59 | 355 | 6.0 | 8.0 | 0.00 | 0.37 | 0.00 | 67 | 1010.4 |
| 20260507025602 | 59 | 327 | 4.0 | 8.0 | 0.00 | 0.37 | 0.00 | 67 | 1010.4 |
| 20260507025500 | 59 | 21 | 1.0 | 8.0 | 0.00 | 0.37 | 0.00 | 67 | 1010.4 |
| 20260507025401 | 59 | 201 | 1.0 | 8.0 | 0.00 | 0.37 | 0.00 | 66 | 1010.3 |
| 20260507025306 | 58 | 201 | 1.0 | 10.0 | 0.00 | 0.37 | 0.00 | 66 | 1010.3 |
| 20260507025159 | 58 | 184 | 2.0 | 12.0 | 0.00 | 0.37 | 0.00 | 67 | 1010.4 |
| 20260507025102 | 58 | 194 | 4.0 | 12.0 | 0.00 | 0.37 | 0.00 | 68 | 1010.4 |
| 20260507025004 | 58 | 177 | 6.0 | 12.0 | 0.00 | 0.37 | 0.00 | 68 | 1010.4 |
| 20260507024859 | 58 | 182 | 4.0 | 12.0 | 0.00 | 0.37 | 0.00 | 68 | 1010.3 |
| 20260507024801 | 58 | 200 | 4.0 | 12.0 | 0.00 | 0.37 | 0.00 | 68 | 1010.3 |
| 20260507024703 | 58 | 215 | 6.0 | 12.0 | 0.00 | 0.37 | 0.00 | 69 | 1010.3 |
| 20260507024559 | 58 | 187 | 6.0 | 12.0 | 0.00 | 0.37 | 0.00 | 69 | 1010.3 |
| 20260507024503 | 58 | 187 | 5.0 | 12.0 | 0.00 | 0.37 | 0.00 | 69 | 1010.2 |
| 20260507024404 | 58 | 189 | 5.0 | 12.0 | 0.00 | 0.37 | 0.00 | 70 | 1010.2 |
| 20260507024301 | 58 | 186 | 5.0 | 12.0 | 0.00 | 0.37 | 0.00 | 70 | 1010.2 |
| 20260507024203 | 58 | 195 | 8.0 | 11.0 | 0.00 | 0.37 | 0.00 | 71 | 1010.2 |
| 20260507024105 | 58 | 196 | 7.0 | 11.0 | 0.00 | 0.37 | 0.00 | 71 | 1010.2 |
| 20260507024000 | 58 | 167 | 5.0 | 11.0 | 0.00 | 0.37 | 0.00 | 71 | 1010.2 |
| 20260507023901 | 58 | 182 | 5.0 | 13.0 | 0.00 | 0.37 | 0.00 | 71 | 1010.2 |
| 20260507023802 | 58 | 175 | 5.0 | 13.0 | 0.00 | 0.37 | 0.00 | 71 | 1010.2 |
| 20260507023601 | 58 | 167 | 8.0 | 13.0 | 0.00 | 0.37 | 0.00 | 71 | 1010.2 |
| 20260507023502 | 58 | 176 | 7.0 | 13.0 | 0.00 | 0.37 | 0.00 | 71 | 1010.3 |
| 20260507023301 | 58 | 174 | 5.0 | 13.0 | 0.00 | 0.37 | 0.00 | 70 | 1010.3 |
| 20260507023059 | 58 | 169 | 7.0 | 13.0 | 0.00 | 0.37 | 0.00 | 71 | 1010.3 |
| 20260507023003 | 58 | 170 | 7.0 | 13.0 | 0.00 | 0.37 | 0.00 | 71 | 1010.3 |
| 20260507022903 | 58 | 179 | 7.0 | 13.0 | 0.00 | 0.37 | 0.00 | 70 | 1010.3 |
| 20260507022702 | 58 | 198 | 8.0 | 11.0 | 0.00 | 0.37 | 0.00 | 71 | 1010.4 |
| 20260507022603 | 58 | 182 | 11.0 | 12.0 | 0.00 | 0.37 | 0.00 | 71 | 1010.4 |
| 20260507022501 | 58 | 184 | 9.0 | 12.0 | 0.00 | 0.37 | 0.00 | 71 | 1010.5 |
| 20260507022406 | 58 | 184 | 9.0 | 12.0 | 0.00 | 0.37 | 0.00 | 71 | 1010.5 |
| 20260507022306 | 58 | 192 | 8.0 | 11.0 | 0.00 | 0.37 | 0.00 | 71 | 1010.5 |
| 20260507022159 | 58 | 188 | 6.0 | 12.0 | 0.00 | 0.37 | 0.00 | 71 | 1010.5 |
| 20260507022102 | 58 | 190 | 8.0 | 12.0 | 0.00 | 0.37 | 0.00 | 71 | 1010.5 |
| 20260507022003 | 58 | 223 | 9.0 | 11.0 | 0.00 | 0.37 | 0.00 | 71 | 1010.5 |
| 20260507021900 | 58 | 205 | 10.0 | 11.0 | 0.00 | 0.37 | 0.00 | 71 | 1010.5 |
| 20260507021801 | 59 | 185 | 7.0 | 11.0 | 0.00 | 0.37 | 0.00 | 71 | 1010.5 |
| 20260507021702 | 58 | 211 | 7.0 | 11.0 | 0.00 | 0.37 | 0.00 | 71 | 1010.5 |
| 20260507021559 | 58 | 224 | 8.0 | 11.0 | 0.00 | 0.37 | 0.00 | 71 | 1010.5 |
| 20260507021402 | 59 | 223 | 7.0 | 11.0 | 0.00 | 0.37 | 0.00 | 71 | 1010.6 |
| 20260507021300 | 59 | 229 | 7.0 | 11.0 | 0.00 | 0.37 | 0.00 | 71 | 1010.6 |
| 20260507021103 | 59 | 241 | 8.0 | 10.0 | 0.00 | 0.37 | 0.00 | 70 | 1010.6 |
| 20260507021001 | 59 | 225 | 6.0 | 10.0 | 0.00 | 0.37 | 0.00 | 70 | 1010.6 |
| 20260507020901 | 59 | 233 | 6.0 | 10.0 | 0.00 | 0.37 | 0.00 | 70 | 1010.6 |
| 20260507020659 | 58 | 218 | 8.0 | 10.0 | 0.00 | 0.37 | 0.00 | 70 | 1010.6 |
| 20260507020601 | 58 | 240 | 6.0 | 10.0 | 0.00 | 0.37 | 0.00 | 71 | 1010.6 |
| 20260507020505 | 58 | 211 | 7.0 | 10.0 | 0.00 | 0.37 | 0.00 | 71 | 1010.6 |
| 20260507020400 | 58 | 225 | 5.0 | 10.0 | 0.00 | 0.37 | 0.00 | 71 | 1010.6 |
| 20260507020204 | 58 | 236 | 8.0 | 10.0 | 0.00 | 0.37 | 0.00 | 72 | 1010.6 |
| 20260507015902 | 58 | 229 | 8.0 | 8.0 | 0.00 | 0.38 | 0.00 | 73 | 1010.6 |
| 20260507015801 | 58 | 247 | 5.0 | 7.0 | 0.00 | 0.38 | 0.00 | 73 | 1010.6 |
| 20260507015702 | 58 | 243 | 7.0 | 7.0 | 0.00 | 0.38 | 0.00 | 73 | 1010.6 |
| 20260507015602 | 58 | 249 | 4.0 | 6.0 | 0.00 | 0.38 | 0.00 | 73 | 1010.6 |
| 20260507015200 | 58 | 227 | 2.0 | 6.0 | 0.00 | 0.38 | 0.00 | 72 | 1010.6 |
| 20260507015102 | 58 | 227 | 3.0 | 6.0 | 0.00 | 0.38 | 0.00 | 72 | 1010.6 |
| 20260507015006 | 58 | 227 | 2.0 | 7.0 | 0.00 | 0.38 | 0.00 | 72 | 1010.6 |
| 20260507014859 | 58 | 227 | 4.0 | 7.0 | 0.00 | 0.38 | 0.00 | 72 | 1010.6 |
| 20260507014802 | 58 | 227 | 3.0 | 7.0 | 0.00 | 0.38 | 0.00 | 72 | 1010.6 |
| 20260507014702 | 58 | 213 | 5.0 | 7.0 | 0.00 | 0.38 | 0.00 | 73 | 1010.6 |
| 20260507014605 | 58 | 246 | 2.0 | 7.0 | 0.00 | 0.38 | 0.00 | 72 | 1010.6 |
| 20260507014502 | 58 | 231 | 3.0 | 7.0 | 0.00 | 0.38 | 0.00 | 72 | 1010.7 |
| 20260507014402 | 58 | 254 | 3.0 | 7.0 | 0.00 | 0.38 | 0.00 | 72 | 1010.7 |
| 20260507014259 | 58 | 221 | 4.0 | 7.0 | 0.00 | 0.38 | 0.00 | 72 | 1010.7 |
| 20260507014203 | 58 | 252 | 4.0 | 7.0 | 0.00 | 0.38 | 0.00 | 73 | 1010.7 |
| 20260507014102 | 58 | 246 | 3.0 | 7.0 | 0.00 | 0.38 | 0.00 | 72 | 1010.6 |
| 20260507014002 | 58 | 232 | 3.0 | 7.0 | 0.00 | 0.38 | 0.00 | 72 | 1010.6 |
| 20260507013902 | 58 | 239 | 2.0 | 7.0 | 0.00 | 0.38 | 0.00 | 72 | 1010.6 |
| 20260507013802 | 58 | 239 | 5.0 | 8.0 | 0.00 | 0.38 | 0.00 | 72 | 1010.6 |
| 20260507013559 | 58 | 248 | 5.0 | 9.0 | 0.00 | 0.38 | 0.00 | 71 | 1010.5 |
| 20260507013520 | 58 | 234 | 4.0 | 9.0 | 0.00 | 0.38 | 0.00 | 71 | 1010.5 |
| 20260507013359 | 59 | 242 | 4.0 | 9.0 | 0.00 | 0.38 | 0.00 | 71 | 1010.4 |
| 20260507013300 | 59 | 250 | 2.0 | 9.0 | 0.00 | 0.38 | 0.00 | 71 | 1010.5 |
| 20260507013203 | 59 | 239 | 5.0 | 9.0 | 0.00 | 0.38 | 0.00 | 71 | 1010.4 |
| 20260507013059 | 59 | 239 | 4.0 | 9.0 | 0.00 | 0.38 | 0.00 | 71 | 1010.4 |
| 20260507013000 | 59 | 242 | 5.0 | 10.0 | 0.00 | 0.38 | 0.00 | 70 | 1010.4 |
| 20260507012902 | 59 | 226 | 5.0 | 11.0 | 0.00 | 0.38 | 0.00 | 71 | 1010.4 |
| 20260507012759 | 59 | 239 | 7.0 | 11.0 | 0.00 | 0.38 | 0.00 | 71 | 1010.4 |
| 20260507012659 | 59 | 240 | 7.0 | 12.0 | 0.00 | 0.38 | 0.00 | 71 | 1010.4 |
| 20260507012602 | 59 | 229 | 8.0 | 13.0 | 0.00 | 0.38 | 0.00 | 71 | 1010.4 |
| 20260507012501 | 59 | 233 | 6.0 | 13.0 | 0.00 | 0.38 | 0.00 | 71 | 1010.5 |
| 20260507012400 | 59 | 240 | 6.0 | 13.0 | 0.00 | 0.38 | 0.00 | 70 | 1010.5 |
| 20260507012305 | 59 | 243 | 6.0 | 13.0 | 0.00 | 0.38 | 0.00 | 70 | 1010.5 |
| 20260507012200 | 59 | 240 | 7.0 | 13.0 | 0.00 | 0.38 | 0.00 | 70 | 1010.4 |
| 20260507012059 | 59 | 236 | 7.0 | 13.0 | 0.00 | 0.38 | 0.00 | 70 | 1010.4 |
| 20260507012004 | 59 | 236 | 8.0 | 13.0 | 0.00 | 0.38 | 0.00 | 70 | 1010.4 |
| 20260507011900 | 59 | 232 | 10.0 | 13.0 | 0.00 | 0.38 | 0.00 | 70 | 1010.4 |
| 20260507011801 | 59 | 234 | 11.0 | 13.0 | 0.00 | 0.38 | 0.00 | 71 | 1010.4 |
| 20260507011702 | 59 | 218 | 11.0 | 13.0 | 0.00 | 0.38 | 0.00 | 71 | 1010.3 |
| 20260507011601 | 58 | 229 | 11.0 | 12.0 | 0.00 | 0.38 | 0.00 | 71 | 1010.4 |
| 20260507011500 | 58 | 221 | 12.0 | 12.0 | 0.00 | 0.38 | 0.00 | 71 | 1010.4 |
| 20260507011403 | 58 | 227 | 10.0 | 12.0 | 0.00 | 0.38 | 0.00 | 72 | 1010.4 |
| 20260507011259 | 58 | 233 | 8.0 | 9.0 | 0.00 | 0.38 | 0.00 | 72 | 1010.4 |
| 20260507011200 | 58 | 240 | 7.0 | 9.0 | 0.00 | 0.38 | 0.00 | 71 | 1010.4 |
| 20260507011103 | 58 | 252 | 7.0 | 9.0 | 0.00 | 0.38 | 0.00 | 72 | 1010.5 |
| 20260507011002 | 58 | 230 | 5.0 | 9.0 | 0.00 | 0.38 | 0.00 | 72 | 1010.4 |
| 20260507010859 | 58 | 247 | 4.0 | 9.0 | 0.00 | 0.38 | 0.00 | 72 | 1010.5 |
| 20260507010802 | 58 | 240 | 8.0 | 9.0 | 0.00 | 0.38 | 0.00 | 72 | 1010.4 |
| 20260507010700 | 58 | 220 | 6.0 | 8.0 | 0.00 | 0.38 | 0.00 | 72 | 1010.5 |
| 20260507010601 | 58 | 230 | 7.0 | 7.0 | 0.00 | 0.38 | 0.00 | 72 | 1010.5 |
| 20260507010503 | 58 | 234 | 5.0 | 7.0 | 0.00 | 0.38 | 0.00 | 72 | 1010.5 |
| 20260507010359 | 58 | 240 | 4.0 | 8.0 | 0.00 | 0.38 | 0.00 | 72 | 1010.5 |
| 20260507010259 | 58 | 236 | 7.0 | 8.0 | 0.00 | 0.38 | 0.00 | 73 | 1010.5 |
| 20260507010203 | 58 | 221 | 6.0 | 8.0 | 0.00 | 0.38 | 0.00 | 72 | 1010.4 |
| 20260507010100 | 58 | 225 | 4.0 | 8.0 | 0.00 | 0.38 | 0.00 | 72 | 1010.4 |
| 20260507010003 | 58 | 238 | 3.0 | 8.0 | 0.00 | 0.38 | 0.00 | 72 | 1010.5 |
| 20260507005902 | 58 | 263 | 5.0 | 8.0 | 0.00 | 0.42 | 0.00 | 72 | 1010.5 |
| 20260507005759 | 58 | 232 | 7.0 | 8.0 | 0.00 | 0.42 | 0.00 | 72 | 1010.5 |
| 20260507005659 | 59 | 237 | 5.0 | 8.0 | 0.00 | 0.42 | 0.00 | 72 | 1010.5 |
| 20260507005602 | 59 | 218 | 4.0 | 8.0 | 0.00 | 0.42 | 0.00 | 72 | 1010.6 |
| 20260507005500 | 59 | 230 | 7.0 | 8.0 | 0.00 | 0.42 | 0.00 | 72 | 1010.6 |
| 20260507005400 | 59 | 217 | 8.0 | 8.0 | 0.00 | 0.42 | 0.00 | 72 | 1010.6 |
| 20260507005305 | 59 | 232 | 8.0 | 8.0 | 0.00 | 0.42 | 0.00 | 72 | 1010.6 |
| 20260507005159 | 59 | 242 | 6.0 | 9.0 | 0.00 | 0.42 | 0.00 | 72 | 1010.6 |
| 20260507005059 | 59 | 205 | 4.0 | 9.0 | 0.00 | 0.42 | 0.00 | 71 | 1010.6 |
| 20260507005004 | 59 | 240 | 3.0 | 9.0 | 0.00 | 0.42 | 0.00 | 71 | 1010.6 |
| 20260507004859 | 59 | 221 | 7.0 | 9.0 | 0.00 | 0.42 | 0.00 | 71 | 1010.7 |
| 20260507004801 | 59 | 257 | 6.0 | 9.0 | 0.00 | 0.42 | 0.00 | 71 | 1010.6 |
| 20260507004704 | 59 | 240 | 5.0 | 9.0 | 0.00 | 0.42 | 0.00 | 71 | 1010.6 |
| 20260507004510 | 59 | 237 | 6.0 | 9.0 | 0.00 | 0.42 | 0.00 | 70 | 1010.6 |
| 20260507004404 | 59 | 241 | 5.0 | 9.0 | 0.00 | 0.42 | 0.00 | 70 | 1010.6 |
| 20260507004259 | 59 | 228 | 4.0 | 9.0 | 0.00 | 0.42 | 0.00 | 70 | 1010.6 |
| 20260507004102 | 59 | 244 | 4.0 | 9.0 | 0.00 | 0.42 | 0.00 | 71 | 1010.7 |
| 20260507004001 | 59 | 250 | 7.0 | 9.0 | 0.00 | 0.42 | 0.00 | 71 | 1010.7 |
| 20260507003859 | 59 | 234 | 6.0 | 9.0 | 0.00 | 0.42 | 0.00 | 71 | 1010.7 |
| 20260507003803 | 59 | 227 | 6.0 | 9.0 | 0.00 | 0.42 | 0.00 | 70 | 1010.7 |
| 20260507003700 | 59 | 234 | 7.0 | 9.0 | 0.00 | 0.42 | 0.00 | 71 | 1010.7 |
| 20260507003600 | 59 | 227 | 5.0 | 7.0 | 0.00 | 0.42 | 0.00 | 71 | 1010.7 |
| 20260507003504 | 59 | 250 | 5.0 | 7.0 | 0.00 | 0.42 | 0.00 | 70 | 1010.7 |
| 20260507003359 | 59 | 235 | 6.0 | 7.0 | 0.00 | 0.42 | 0.00 | 71 | 1010.7 |
| 20260507003259 | 59 | 226 | 4.0 | 7.0 | 0.00 | 0.42 | 0.00 | 70 | 1010.7 |
| 20260507003202 | 59 | 220 | 5.0 | 7.0 | 0.00 | 0.42 | 0.00 | 71 | 1010.7 |
| 20260507003101 | 59 | 213 | 5.0 | 7.0 | 0.00 | 0.42 | 0.00 | 71 | 1010.7 |
| 20260507003001 | 59 | 232 | 6.0 | 7.0 | 0.00 | 0.42 | 0.00 | 71 | 1010.7 |
| 20260507002800 | 59 | 235 | 4.0 | 7.0 | 0.00 | 0.42 | 0.00 | 71 | 1010.6 |
| 20260507002700 | 59 | 251 | 4.0 | 6.0 | 0.00 | 0.42 | 0.00 | 71 | 1010.6 |
| 20260507002602 | 60 | 232 | 2.0 | 6.0 | 0.00 | 0.42 | 0.00 | 70 | 1010.6 |
| 20260507002500 | 60 | 242 | 4.0 | 6.0 | 0.00 | 0.42 | 0.00 | 70 | 1010.6 |
| 20260507002359 | 60 | 255 | 3.0 | 6.0 | 0.00 | 0.42 | 0.00 | 70 | 1010.6 |
| 20260507002306 | 60 | 281 | 2.0 | 6.0 | 0.00 | 0.42 | 0.00 | 69 | 1010.6 |
| 20260507002159 | 60 | 275 | 3.0 | 6.0 | 0.00 | 0.42 | 0.00 | 69 | 1010.6 |
| 20260507002059 | 60 | 271 | 4.0 | 6.0 | 0.00 | 0.42 | 0.00 | 69 | 1010.6 |
| 20260507002004 | 60 | 290 | 4.0 | 6.0 | 0.00 | 0.42 | 0.00 | 69 | 1010.6 |
| 20260507001800 | 60 | 254 | 4.0 | 8.0 | 0.00 | 0.42 | 0.00 | 69 | 1010.5 |
| 20260507001704 | 60 | 254 | 3.0 | 11.0 | 0.00 | 0.42 | 0.00 | 68 | 1010.5 |
| 20260507001600 | 60 | 254 | 3.0 | 11.0 | 0.00 | 0.42 | 0.00 | 68 | 1010.5 |
| 20260507001501 | 60 | 254 | 3.0 | 12.0 | 0.00 | 0.42 | 0.00 | 68 | 1010.5 |
| 20260507001403 | 60 | 254 | 2.0 | 12.0 | 0.00 | 0.42 | 0.00 | 67 | 1010.5 |
| 20260507001159 | 60 | 238 | 3.0 | 12.0 | 0.00 | 0.42 | 0.00 | 68 | 1010.5 |
| 20260507001103 | 60 | 243 | 5.0 | 12.0 | 0.00 | 0.42 | 0.00 | 67 | 1010.6 |
| 20260507001001 | 60 | 231 | 2.0 | 12.0 | 0.00 | 0.42 | 0.00 | 67 | 1010.6 |
| 20260507000859 | 60 | 209 | 7.0 | 12.0 | 0.00 | 0.42 | 0.00 | 67 | 1010.5 |
| 20260507000802 | 60 | 225 | 5.0 | 12.0 | 0.00 | 0.42 | 0.00 | 67 | 1010.5 |
| 20260507000659 | 60 | 196 | 10.0 | 15.0 | 0.00 | 0.42 | 0.00 | 67 | 1010.5 |
| 20260507000600 | 60 | 190 | 10.0 | 15.0 | 0.00 | 0.42 | 0.00 | 67 | 1010.5 |
| 20260507000503 | 60 | 201 | 7.0 | 15.0 | 0.00 | 0.42 | 0.00 | 67 | 1010.5 |
| 20260507000359 | 60 | 193 | 4.0 | 15.0 | 0.00 | 0.42 | 0.00 | 67 | 1010.5 |
| 20260507000259 | 60 | 182 | 8.0 | 15.0 | 0.00 | 0.42 | 0.00 | 67 | 1010.5 |
| 20260507000204 | 60 | 159 | 7.0 | 15.0 | 0.00 | 0.42 | 0.00 | 67 | 1010.5 |
| 20260507000112 | 60 | 193 | 7.0 | 15.0 | 0.00 | 0.42 | 0.00 | 67 | 1010.5 |
| 20260507000003 | 60 | 205 | 5.0 | 15.0 | 0.00 | 0.42 | 0.00 | 67 | 1010.5 |
| 20260506235902 | 60 | 173 | 8.0 | 15.0 | 0.00 | 0.42 | 0.00 | 67 | 1010.5 |
| 20260506235800 | 60 | 198 | 12.0 | 15.0 | 0.00 | 0.42 | 0.00 | 67 | 1010.5 |
| 20260506235700 | 60 | 186 | 6.0 | 11.0 | 0.00 | 0.42 | 0.00 | 68 | 1010.5 |
| 20260506235602 | 60 | 188 | 7.0 | 11.0 | 0.00 | 0.42 | 0.00 | 68 | 1010.6 |
| 20260506235500 | 60 | 192 | 4.0 | 11.0 | 0.00 | 0.42 | 0.00 | 67 | 1010.6 |
| 20260506235400 | 60 | 201 | 7.0 | 11.0 | 0.00 | 0.42 | 0.00 | 67 | 1010.5 |
| 20260506235159 | 60 | 194 | 9.0 | 11.0 | 0.00 | 0.42 | 0.00 | 67 | 1010.5 |
| 20260506235059 | 60 | 221 | 10.0 | 12.0 | 0.00 | 0.42 | 0.00 | 68 | 1010.5 |
| 20260506235005 | 60 | 194 | 8.0 | 13.0 | 0.00 | 0.42 | 0.00 | 68 | 1010.5 |
| 20260506234859 | 60 | 185 | 3.0 | 13.0 | 0.00 | 0.42 | 0.00 | 67 | 1010.6 |
| 20260506234759 | 60 | 178 | 9.0 | 13.0 | 0.00 | 0.42 | 0.00 | 67 | 1010.6 |
| 20260506234702 | 60 | 188 | 7.0 | 13.0 | 0.00 | 0.42 | 0.00 | 67 | 1010.6 |
| 20260506234559 | 60 | 186 | 5.0 | 13.0 | 0.00 | 0.42 | 0.00 | 67 | 1010.6 |
| 20260506234403 | 60 | 159 | 3.0 | 13.0 | 0.00 | 0.42 | 0.00 | 67 | 1010.6 |
| 20260506234159 | 60 | 191 | 9.0 | 13.0 | 0.00 | 0.42 | 0.00 | 68 | 1010.6 |
| 20260506234001 | 60 | 202 | 8.0 | 11.0 | 0.00 | 0.42 | 0.00 | 68 | 1010.7 |
| 20260506233859 | 60 | 194 | 5.0 | 11.0 | 0.00 | 0.42 | 0.00 | 68 | 1010.7 |
| 20260506233802 | 60 | 204 | 7.0 | 11.0 | 0.00 | 0.42 | 0.00 | 68 | 1010.6 |
| 20260506233503 | 60 | 220 | 7.0 | 11.0 | 0.00 | 0.42 | 0.00 | 68 | 1010.7 |
| 20260506233300 | 60 | 202 | 4.0 | 11.0 | 0.00 | 0.42 | 0.00 | 69 | 1010.7 |
| 20260506233202 | 60 | 262 | 4.0 | 11.0 | 0.00 | 0.42 | 0.00 | 69 | 1010.7 |
| 20260506233100 | 60 | 248 | 4.0 | 11.0 | 0.00 | 0.42 | 0.00 | 69 | 1010.7 |
| 20260506233004 | 60 | 269 | 4.0 | 12.0 | 0.00 | 0.42 | 0.00 | 69 | 1010.7 |
| 20260506232904 | 60 | 267 | 5.0 | 12.0 | 0.00 | 0.42 | 0.00 | 69 | 1010.7 |
| 20260506232800 | 60 | 247 | 2.0 | 12.0 | 0.00 | 0.42 | 0.00 | 69 | 1010.8 |
| 20260506232701 | 60 | 256 | 2.0 | 12.0 | 0.00 | 0.42 | 0.00 | 70 | 1010.8 |
| 20260506232500 | 60 | 232 | 7.0 | 12.0 | 0.00 | 0.42 | 0.00 | 70 | 1010.7 |
| 20260506232359 | 60 | 250 | 4.0 | 13.0 | 0.00 | 0.42 | 0.00 | 70 | 1010.7 |
| 20260506232306 | 60 | 216 | 4.0 | 13.0 | 0.00 | 0.42 | 0.00 | 70 | 1010.7 |
| 20260506232159 | 61 | 212 | 5.0 | 13.0 | 0.00 | 0.42 | 0.00 | 70 | 1010.7 |
| 20260506232059 | 61 | 228 | 6.0 | 13.0 | 0.00 | 0.42 | 0.00 | 70 | 1010.7 |
| 20260506232005 | 61 | 227 | 11.0 | 13.0 | 0.00 | 0.42 | 0.00 | 70 | 1010.7 |
| 20260506231859 | 61 | 218 | 7.0 | 16.0 | 0.00 | 0.42 | 0.00 | 70 | 1010.7 |
| 20260506231800 | 61 | 240 | 8.0 | 16.0 | 0.00 | 0.42 | 0.00 | 69 | 1010.6 |
| 20260506231702 | 61 | 202 | 6.0 | 18.0 | 0.00 | 0.42 | 0.00 | 69 | 1010.6 |
| 20260506231502 | 61 | 209 | 9.0 | 18.0 | 0.00 | 0.42 | 0.00 | 69 | 1010.6 |
| 20260506231407 | 61 | 206 | 7.0 | 21.0 | 0.00 | 0.42 | 0.00 | 69 | 1010.6 |
| 20260506231200 | 61 | 191 | 10.0 | 21.0 | 0.00 | 0.42 | 0.00 | 69 | 1010.5 |
| 20260506231103 | 61 | 207 | 7.0 | 21.0 | 0.00 | 0.42 | 0.00 | 69 | 1010.5 |
| 20260506231000 | 61 | 197 | 10.0 | 21.0 | 0.00 | 0.42 | 0.00 | 69 | 1010.6 |
| 20260506230900 | 61 | 190 | 10.0 | 21.0 | 0.00 | 0.42 | 0.00 | 69 | 1010.6 |
| 20260506230802 | 61 | 200 | 10.0 | 21.0 | 0.00 | 0.42 | 0.00 | 70 | 1010.6 |
| 20260506230601 | 61 | 211 | 11.0 | 21.0 | 0.00 | 0.42 | 0.00 | 71 | 1010.7 |
| 20260506230506 | 61 | 205 | 11.0 | 21.0 | 0.00 | 0.42 | 0.00 | 71 | 1010.7 |
| 20260506230359 | 61 | 182 | 15.0 | 20.0 | 0.00 | 0.42 | 0.00 | 71 | 1010.6 |
| 20260506230259 | 61 | 192 | 8.0 | 20.0 | 0.00 | 0.42 | 0.00 | 72 | 1010.7 |
| 20260506230003 | 61 | 187 | 9.0 | 23.0 | 0.00 | 0.42 | 0.00 | 72 | 1010.6 |
| 20260506225902 | 61 | 200 | 8.0 | 23.0 | 0.00 | 0.43 | 0.00 | 72 | 1010.6 |
| 20260506225759 | 61 | 227 | 11.0 | 23.0 | 0.00 | 0.43 | 0.00 | 72 | 1010.7 |
| 20260506225602 | 61 | 217 | 18.0 | 23.0 | 0.00 | 0.43 | 0.00 | 72 | 1010.6 |
| 20260506225500 | 61 | 230 | 13.0 | 23.0 | 0.00 | 0.43 | 0.00 | 72 | 1010.7 |
| 20260506225400 | 61 | 224 | 15.0 | 23.0 | 0.00 | 0.43 | 0.00 | 72 | 1010.6 |
| 20260506225159 | 61 | 216 | 18.0 | 23.0 | 0.00 | 0.43 | 0.00 | 72 | 1010.5 |
| 20260506225100 | 61 | 225 | 21.0 | 23.0 | 0.00 | 0.43 | 0.00 | 72 | 1010.5 |
| 20260506225004 | 61 | 232 | 13.0 | 23.0 | 0.00 | 0.43 | 0.00 | 72 | 1010.5 |
| 20260506224900 | 61 | 217 | 20.0 | 23.0 | 0.00 | 0.43 | 0.00 | 72 | 1010.5 |
| 20260506224705 | 61 | 229 | 15.0 | 24.0 | 0.00 | 0.43 | 0.00 | 72 | 1010.5 |
| 20260506224600 | 61 | 198 | 20.0 | 24.0 | 0.00 | 0.43 | 0.00 | 72 | 1010.5 |
| 20260506224500 | 61 | 217 | 21.0 | 24.0 | 0.00 | 0.43 | 0.00 | 73 | 1010.5 |
| 20260506224402 | 61 | 187 | 10.0 | 24.0 | 0.00 | 0.43 | 0.00 | 73 | 1010.5 |
| 20260506224200 | 61 | 196 | 13.0 | 24.0 | 0.00 | 0.43 | 0.00 | 72 | 1010.5 |
| 20260506224102 | 61 | 218 | 18.0 | 24.0 | 0.00 | 0.43 | 0.00 | 72 | 1010.5 |
| 20260506223659 | 61 | 217 | 17.0 | 22.0 | 0.00 | 0.43 | 0.00 | 72 | 1010.4 |
| 20260506223600 | 61 | 225 | 17.0 | 22.0 | 0.00 | 0.43 | 0.00 | 73 | 1010.4 |
| 20260506223504 | 61 | 227 | 16.0 | 22.0 | 0.00 | 0.43 | 0.00 | 73 | 1010.4 |
| 20260506223401 | 61 | 210 | 12.0 | 22.0 | 0.00 | 0.43 | 0.00 | 73 | 1010.5 |
| 20260506223306 | 61 | 211 | 8.0 | 22.0 | 0.00 | 0.43 | 0.00 | 73 | 1010.5 |
| 20260506223202 | 61 | 226 | 11.0 | 22.0 | 0.00 | 0.43 | 0.00 | 73 | 1010.4 |
| 20260506223059 | 61 | 212 | 19.0 | 22.0 | 0.00 | 0.43 | 0.00 | 73 | 1010.4 |
| 20260506223002 | 61 | 190 | 14.0 | 22.0 | 0.00 | 0.43 | 0.00 | 73 | 1010.4 |
| 20260506222906 | 61 | 197 | 12.0 | 22.0 | 0.00 | 0.43 | 0.00 | 73 | 1010.4 |
| 20260506222800 | 61 | 204 | 10.0 | 21.0 | 0.00 | 0.43 | 0.00 | 73 | 1010.4 |
| 20260506222605 | 61 | 192 | 7.0 | 21.0 | 0.00 | 0.43 | 0.00 | 73 | 1010.5 |
| 20260506222500 | 61 | 216 | 11.0 | 21.0 | 0.01 | 0.43 | 0.00 | 73 | 1010.5 |
| 20260506222400 | 61 | 193 | 11.0 | 21.0 | 0.01 | 0.43 | 0.00 | 73 | 1010.5 |
| 20260506222305 | 61 | 215 | 9.0 | 21.0 | 0.01 | 0.43 | 0.00 | 72 | 1010.5 |
| 20260506222203 | 61 | 202 | 12.0 | 21.0 | 0.01 | 0.43 | 0.00 | 72 | 1010.5 |
| 20260506222059 | 61 | 201 | 12.0 | 21.0 | 0.01 | 0.43 | 0.00 | 72 | 1010.5 |
| 20260506222005 | 61 | 213 | 16.0 | 21.0 | 0.01 | 0.43 | 0.00 | 72 | 1010.5 |
| 20260506221900 | 61 | 206 | 13.0 | 21.0 | 0.01 | 0.43 | 0.00 | 72 | 1010.6 |
| 20260506221759 | 61 | 221 | 12.0 | 24.0 | 0.01 | 0.43 | 0.00 | 72 | 1010.5 |
| 20260506221703 | 61 | 212 | 11.0 | 24.0 | 0.01 | 0.43 | 0.00 | 72 | 1010.5 |
| 20260506221600 | 61 | 207 | 12.0 | 24.0 | 0.01 | 0.43 | 0.00 | 72 | 1010.6 |
| 20260506221501 | 61 | 207 | 14.0 | 24.0 | 0.01 | 0.43 | 0.00 | 71 | 1010.4 |
| 20260506221402 | 61 | 194 | 20.0 | 24.0 | 0.01 | 0.43 | 0.00 | 71 | 1010.4 |
| 20260506221300 | 61 | 189 | 13.0 | 24.0 | 0.01 | 0.43 | 0.00 | 71 | 1010.5 |
| 20260506221103 | 61 | 194 | 13.0 | 24.0 | 0.01 | 0.43 | 0.00 | 70 | 1010.4 |
| 20260506220859 | 61 | 201 | 17.0 | 24.0 | 0.01 | 0.43 | 0.00 | 70 | 1010.4 |
| 20260506220559 | 61 | 207 | 17.0 | 24.0 | 0.01 | 0.43 | 0.00 | 70 | 1010.3 |
| 20260506220359 | 61 | 223 | 21.0 | 25.0 | 0.01 | 0.43 | 0.00 | 70 | 1010.3 |
| 20260506220259 | 61 | 218 | 18.0 | 25.0 | 0.01 | 0.43 | 0.00 | 70 | 1010.3 |
| 20260506220204 | 61 | 185 | 20.0 | 25.0 | 0.01 | 0.43 | 0.00 | 70 | 1010.3 |
| 20260506220118 | 61 | 221 | 22.0 | 25.0 | 0.01 | 0.43 | 0.00 | 70 | 1010.4 |
| 20260506220006 | 61 | 202 | 15.0 | 25.0 | 0.01 | 0.43 | 0.00 | 70 | 1010.4 |
| 20260506215803 | 61 | 217 | 18.0 | 25.0 | 0.01 | 0.43 | 0.43 | 69 | 1010.4 |
| 20260506215700 | 61 | 215 | 20.0 | 25.0 | 0.01 | 0.43 | 0.43 | 69 | 1010.4 |
| 20260506215603 | 61 | 219 | 21.0 | 25.0 | 0.01 | 0.43 | 0.43 | 70 | 1010.4 |
| 20260506215400 | 61 | 180 | 14.0 | 22.0 | 0.01 | 0.43 | 0.43 | 70 | 1010.4 |
| 20260506215305 | 61 | 213 | 15.0 | 22.0 | 0.01 | 0.43 | 0.43 | 70 | 1010.4 |
| 20260506215202 | 61 | 222 | 14.0 | 22.0 | 0.01 | 0.43 | 0.43 | 70 | 1010.4 |
| 20260506215004 | 60 | 218 | 16.0 | 21.0 | 0.01 | 0.43 | 0.43 | 71 | 1010.4 |
| 20260506214902 | 60 | 208 | 10.0 | 21.0 | 0.01 | 0.43 | 0.43 | 71 | 1010.4 |
| 20260506214704 | 60 | 208 | 12.0 | 21.0 | 0.01 | 0.43 | 0.43 | 72 | 1010.4 |
| 20260506214602 | 60 | 192 | 17.0 | 21.0 | 0.01 | 0.43 | 0.43 | 72 | 1010.5 |
| 20260506214501 | 60 | 220 | 12.0 | 21.0 | 0.01 | 0.43 | 0.43 | 73 | 1010.5 |
| 20260506214403 | 60 | 213 | 17.0 | 21.0 | 0.01 | 0.43 | 0.43 | 73 | 1010.5 |
| 20260506214201 | 60 | 205 | 9.0 | 22.0 | 0.01 | 0.43 | 0.43 | 75 | 1010.5 |
| 20260506214103 | 60 | 181 | 14.0 | 22.0 | 0.01 | 0.43 | 0.43 | 75 | 1010.5 |
| 20260506214007 | 60 | 221 | 15.0 | 22.0 | 0.01 | 0.43 | 0.43 | 75 | 1010.5 |
| 20260506213901 | 60 | 213 | 14.0 | 22.0 | 0.01 | 0.43 | 0.43 | 76 | 1010.5 |
| 20260506213803 | 60 | 223 | 9.0 | 22.0 | 0.01 | 0.43 | 0.43 | 76 | 1010.5 |
| 20260506213703 | 60 | 205 | 10.0 | 22.0 | 0.01 | 0.43 | 0.43 | 76 | 1010.5 |
| 20260506213602 | 59 | 215 | 14.0 | 22.0 | 0.01 | 0.43 | 0.43 | 76 | 1010.4 |
| 20260506213505 | 60 | 212 | 18.0 | 19.0 | 0.01 | 0.43 | 0.43 | 76 | 1010.5 |
| 20260506213402 | 60 | 200 | 14.0 | 19.0 | 0.01 | 0.43 | 0.43 | 76 | 1010.5 |
| 20260506213301 | 60 | 213 | 12.0 | 19.0 | 0.01 | 0.43 | 0.43 | 77 | 1010.5 |
| 20260506213219 | 60 | 214 | 10.0 | 19.0 | 0.01 | 0.43 | 0.43 | 76 | 1010.5 |
| 20260506213103 | 60 | 214 | 10.0 | 19.0 | 0.01 | 0.43 | 0.43 | 76 | 1010.4 |
| 20260506213002 | 60 | 221 | 20.0 | 20.0 | 0.01 | 0.43 | 0.43 | 76 | 1010.4 |
| 20260506212903 | 60 | 212 | 9.0 | 22.0 | 0.01 | 0.43 | 0.43 | 76 | 1010.4 |
| 20260506212804 | 60 | 225 | 11.0 | 22.0 | 0.01 | 0.43 | 0.43 | 76 | 1010.4 |
| 20260506212701 | 60 | 220 | 12.0 | 22.0 | 0.01 | 0.43 | 0.43 | 75 | 1010.4 |
| 20260506212608 | 60 | 214 | 15.0 | 22.0 | 0.01 | 0.43 | 0.43 | 75 | 1010.4 |
| 20260506212504 | 60 | 218 | 14.0 | 22.0 | 0.00 | 0.42 | 0.42 | 75 | 1010.4 |
| 20260506212400 | 61 | 209 | 18.0 | 22.0 | 0.00 | 0.42 | 0.42 | 75 | 1010.5 |
| 20260506212307 | 61 | 208 | 8.0 | 22.0 | 0.00 | 0.42 | 0.42 | 75 | 1010.5 |
| 20260506212107 | 61 | 217 | 15.0 | 22.0 | 0.00 | 0.42 | 0.42 | 73 | 1010.3 |
| 20260506212005 | 61 | 221 | 14.0 | 22.0 | 0.00 | 0.42 | 0.42 | 73 | 1010.3 |
| 20260506211902 | 61 | 209 | 14.0 | 21.0 | 0.00 | 0.42 | 0.42 | 74 | 1010.4 |
| 20260506211800 | 61 | 221 | 9.0 | 23.0 | 0.00 | 0.42 | 0.42 | 73 | 1010.4 |
| 20260506211708 | 61 | 200 | 11.0 | 23.0 | 0.00 | 0.42 | 0.42 | 73 | 1010.4 |
| 20260506211603 | 61 | 183 | 17.0 | 23.0 | 0.00 | 0.42 | 0.42 | 73 | 1010.4 |
| 20260506211501 | 61 | 188 | 14.0 | 23.0 | 0.00 | 0.42 | 0.42 | 72 | 1010.4 |
| 20260506211403 | 61 | 238 | 13.0 | 23.0 | 0.00 | 0.42 | 0.42 | 72 | 1010.4 |
| 20260506211304 | 62 | 203 | 16.0 | 23.0 | 0.00 | 0.42 | 0.42 | 71 | 1010.4 |
| 20260506211200 | 62 | 194 | 17.0 | 23.0 | 0.00 | 0.42 | 0.42 | 71 | 1010.4 |
| 20260506211104 | 62 | 200 | 13.0 | 23.0 | 0.00 | 0.42 | 0.42 | 71 | 1010.4 |
| 20260506211003 | 62 | 211 | 16.0 | 23.0 | 0.00 | 0.42 | 0.42 | 71 | 1010.3 |
| 20260506210901 | 62 | 209 | 21.0 | 23.0 | 0.00 | 0.42 | 0.42 | 70 | 1010.3 |
| 20260506210703 | 62 | 203 | 12.0 | 23.0 | 0.00 | 0.42 | 0.42 | 70 | 1010.3 |
| 20260506210601 | 62 | 184 | 18.0 | 23.0 | 0.00 | 0.42 | 0.42 | 70 | 1010.3 |
| 20260506210504 | 62 | 187 | 13.0 | 23.0 | 0.00 | 0.42 | 0.42 | 70 | 1010.3 |
| 20260506210300 | 62 | 200 | 20.0 | 23.0 | 0.00 | 0.42 | 0.42 | 70 | 1010.2 |
| 20260506205904 | 62 | 184 | 18.0 | 20.0 | 0.00 | 0.42 | 0.42 | 72 | 1010.2 |
| 20260506205802 | 61 | 203 | 13.0 | 17.0 | 0.00 | 0.42 | 0.42 | 72 | 1010.3 |
| 20260506205701 | 61 | 174 | 13.0 | 18.0 | 0.00 | 0.42 | 0.42 | 73 | 1010.3 |
| 20260506205603 | 61 | 199 | 11.0 | 18.0 | 0.00 | 0.42 | 0.42 | 73 | 1010.3 |
| 20260506205503 | 61 | 204 | 13.0 | 17.0 | 0.00 | 0.42 | 0.42 | 74 | 1010.3 |
| 20260506205100 | 61 | 207 | 12.0 | 17.0 | 0.00 | 0.42 | 0.42 | 74 | 1010.3 |
| 20260506204903 | 61 | 192 | 6.0 | 17.0 | 0.00 | 0.42 | 0.42 | 74 | 1010.2 |
| 20260506204800 | 61 | 208 | 8.0 | 17.0 | 0.00 | 0.42 | 0.42 | 75 | 1010.3 |
| 20260506204703 | 61 | 178 | 10.0 | 14.0 | 0.00 | 0.42 | 0.42 | 75 | 1010.3 |
| 20260506204603 | 61 | 186 | 11.0 | 15.0 | 0.00 | 0.42 | 0.42 | 76 | 1010.2 |
| 20260506204500 | 61 | 180 | 6.0 | 15.0 | 0.00 | 0.42 | 0.42 | 75 | 1010.3 |
| 20260506204302 | 61 | 171 | 4.0 | 15.0 | 0.00 | 0.42 | 0.42 | 76 | 1010.3 |
| 20260506204200 | 61 | 185 | 9.0 | 15.0 | 0.00 | 0.42 | 0.42 | 76 | 1010.3 |
| 20260506204103 | 61 | 199 | 7.0 | 17.0 | 0.00 | 0.42 | 0.42 | 77 | 1010.3 |
| 20260506203900 | 61 | 188 | 13.0 | 17.0 | 0.00 | 0.42 | 0.42 | 76 | 1010.3 |
| 20260506203803 | 61 | 174 | 7.0 | 17.0 | 0.00 | 0.42 | 0.42 | 76 | 1010.4 |
| 20260506203703 | 61 | 166 | 9.0 | 17.0 | 0.00 | 0.42 | 0.42 | 77 | 1010.4 |
| 20260506203503 | 61 | 171 | 14.0 | 17.0 | 0.00 | 0.42 | 0.42 | 77 | 1010.3 |
| 20260506203403 | 61 | 165 | 7.0 | 17.0 | 0.00 | 0.42 | 0.42 | 77 | 1010.3 |
| 20260506203301 | 61 | 191 | 10.0 | 17.0 | 0.00 | 0.42 | 0.42 | 77 | 1010.3 |
| 20260506203206 | 61 | 188 | 15.0 | 17.0 | 0.00 | 0.42 | 0.42 | 78 | 1010.3 |
| 20260506203105 | 61 | 168 | 5.0 | 10.0 | 0.00 | 0.42 | 0.42 | 78 | 1010.3 |
| 20260506203003 | 61 | 170 | 4.0 | 9.0 | 0.00 | 0.42 | 0.42 | 79 | 1010.3 |
| 20260506202904 | 61 | 176 | 7.0 | 9.0 | 0.00 | 0.42 | 0.42 | 79 | 1010.3 |
| 20260506202803 | 61 | 174 | 8.0 | 10.0 | 0.00 | 0.42 | 0.42 | 79 | 1010.3 |
| 20260506202702 | 61 | 167 | 3.0 | 9.0 | 0.00 | 0.42 | 0.42 | 80 | 1010.3 |
| 20260506202608 | 60 | 162 | 3.0 | 8.0 | 0.00 | 0.42 | 0.42 | 80 | 1010.3 |
| 20260506202506 | 60 | 180 | 5.0 | 7.0 | 0.00 | 0.42 | 0.42 | 80 | 1010.3 |
| 20260506202402 | 60 | 204 | 4.0 | 7.0 | 0.00 | 0.42 | 0.42 | 80 | 1010.3 |
| 20260506202317 | 60 | 175 | 4.0 | 7.0 | 0.00 | 0.42 | 0.42 | 80 | 1010.3 |
| 20260506202205 | 60 | 178 | 6.0 | 7.0 | 0.00 | 0.42 | 0.42 | 80 | 1010.4 |
| 20260506201906 | 60 | 171 | 3.0 | 7.0 | 0.00 | 0.42 | 0.42 | 81 | 1010.4 |
| 20260506201802 | 60 | 164 | 4.0 | 7.0 | 0.00 | 0.42 | 0.42 | 81 | 1010.3 |
| 20260506201704 | 60 | 173 | 6.0 | 7.0 | 0.00 | 0.42 | 0.42 | 81 | 1010.3 |
| 20260506201604 | 60 | 140 | 4.0 | 7.0 | 0.00 | 0.42 | 0.42 | 81 | 1010.3 |
| 20260506201505 | 60 | 161 | 2.0 | 5.0 | 0.00 | 0.42 | 0.42 | 80 | 1010.3 |
| 20260506201201 | 60 | 161 | 3.0 | 5.0 | 0.00 | 0.42 | 0.42 | 80 | 1010.1 |
| 20260506201104 | 60 | 161 | 2.0 | 5.0 | 0.00 | 0.42 | 0.42 | 81 | 1010.1 |
| 20260506201004 | 60 | 142 | 2.0 | 5.0 | 0.00 | 0.42 | 0.42 | 81 | 1010.2 |
| 20260506200803 | 60 | 190 | 2.0 | 7.0 | 0.00 | 0.42 | 0.42 | 81 | 1010.2 |
| 20260506200706 | 60 | 169 | 4.0 | 7.0 | 0.00 | 0.42 | 0.42 | 81 | 1010.2 |
| 20260506200602 | 60 | 167 | 2.0 | 7.0 | 0.00 | 0.42 | 0.42 | 81 | 1010.2 |
| 20260506200506 | 60 | 199 | 3.0 | 7.0 | 0.00 | 0.42 | 0.42 | 81 | 1010.2 |
| 20260506200302 | 60 | 187 | 4.0 | 7.0 | 0.00 | 0.42 | 0.42 | 81 | 1010.2 |
| 20260506200209 | 60 | 180 | 2.0 | 7.0 | 0.00 | 0.42 | 0.42 | 81 | 1010.2 |
| 20260506200131 | 60 | 178 | 3.0 | 7.0 | 0.00 | 0.42 | 0.42 | 82 | 1010.1 |
| 20260506200008 | 60 | 159 | 3.0 | 7.0 | 0.00 | 0.42 | 0.42 | 82 | 1010.1 |
| 20260506195907 | 60 | 200 | 3.0 | 6.0 | 0.00 | 0.42 | 0.42 | 82 | 1010.1 |
| 20260506195801 | 60 | 177 | 2.0 | 6.0 | 0.00 | 0.42 | 0.42 | 82 | 1010.1 |
| 20260506195704 | 60 | 177 | 2.0 | 6.0 | 0.00 | 0.42 | 0.42 | 82 | 1010.1 |
| 20260506195605 | 60 | 177 | 2.0 | 6.0 | 0.00 | 0.42 | 0.42 | 82 | 1010.1 |
| 20260506195500 | 60 | 192 | 2.0 | 9.0 | 0.00 | 0.42 | 0.42 | 82 | 1010.1 |
| 20260506195309 | 60 | 196 | 3.0 | 9.0 | 0.00 | 0.42 | 0.42 | 82 | 1010.1 |
| 20260506194804 | 60 | 178 | 2.0 | 9.0 | 0.00 | 0.42 | 0.42 | 82 | 1010.0 |
| 20260506194705 | 60 | 167 | 3.0 | 9.0 | 0.00 | 0.42 | 0.42 | 82 | 1009.9 |
| 20260506194603 | 60 | 192 | 6.0 | 9.0 | 0.00 | 0.42 | 0.42 | 82 | 1010.0 |
| 20260506194502 | 60 | 159 | 6.0 | 8.0 | 0.00 | 0.42 | 0.42 | 82 | 1009.9 |
| 20260506194425 | 60 | 178 | 5.0 | 8.0 | 0.00 | 0.42 | 0.42 | 82 | 1009.9 |
| 20260506194303 | 60 | 148 | 4.0 | 8.0 | 0.00 | 0.42 | 0.42 | 82 | 1009.9 |
| 20260506194202 | 60 | 169 | 4.0 | 8.0 | 0.00 | 0.42 | 0.42 | 82 | 1009.9 |
| 20260506194101 | 60 | 182 | 4.0 | 7.0 | 0.00 | 0.42 | 0.42 | 82 | 1009.9 |
| 20260506194031 | 60 | 173 | 4.0 | 7.0 | 0.00 | 0.42 | 0.42 | 82 | 1009.9 |
| 20260506193905 | 60 | 189 | 4.0 | 8.0 | 0.00 | 0.42 | 0.42 | 83 | 1009.8 |
| 20260506193605 | 60 | 175 | 5.0 | 8.0 | 0.00 | 0.42 | 0.42 | 83 | 1009.8 |
| 20260506193505 | 60 | 177 | 3.0 | 8.0 | 0.00 | 0.42 | 0.42 | 83 | 1009.8 |
| 20260506193405 | 60 | 157 | 5.0 | 8.0 | 0.00 | 0.42 | 0.42 | 83 | 1009.8 |
| 20260506193302 | 60 | 160 | 2.0 | 8.0 | 0.00 | 0.42 | 0.42 | 83 | 1009.7 |
| 20260506193202 | 60 | 167 | 4.0 | 8.0 | 0.00 | 0.42 | 0.42 | 83 | 1009.7 |
| 20260506193003 | 60 | 177 | 6.0 | 9.0 | 0.00 | 0.42 | 0.42 | 83 | 1009.6 |
| 20260506192823 | 60 | 193 | 5.0 | 9.0 | 0.00 | 0.42 | 0.42 | 83 | 1009.6 |
| 20260506192702 | 60 | 179 | 4.0 | 9.0 | 0.00 | 0.42 | 0.42 | 83 | 1009.6 |
| 20260506192606 | 60 | 182 | 6.0 | 10.0 | 0.00 | 0.42 | 0.42 | 83 | 1009.6 |
| 20260506192518 | 60 | 185 | 4.0 | 10.0 | 0.00 | 0.42 | 0.42 | 83 | 1009.6 |
| 20260506192401 | 60 | 167 | 2.0 | 10.0 | 0.00 | 0.42 | 0.42 | 83 | 1009.6 |
| 20260506192305 | 60 | 192 | 3.0 | 10.0 | 0.00 | 0.42 | 0.42 | 83 | 1009.6 |
| 20260506192104 | 60 | 175 | 6.0 | 10.0 | 0.00 | 0.42 | 0.42 | 84 | 1009.6 |
| 20260506191912 | 60 | 164 | 3.0 | 11.0 | 0.00 | 0.42 | 0.42 | 84 | 1009.6 |
| 20260506191802 | 60 | 174 | 8.0 | 11.0 | 0.00 | 0.42 | 0.42 | 84 | 1009.5 |
| 20260506191703 | 60 | 161 | 4.0 | 11.0 | 0.00 | 0.42 | 0.42 | 84 | 1009.5 |
| 20260506191502 | 60 | 171 | 4.0 | 13.0 | 0.00 | 0.42 | 0.42 | 84 | 1009.5 |
| 20260506191406 | 60 | 153 | 5.0 | 13.0 | 0.00 | 0.42 | 0.42 | 84 | 1009.5 |
| 20260506191305 | 60 | 179 | 4.0 | 13.0 | 0.00 | 0.42 | 0.42 | 84 | 1009.5 |
| 20260506191101 | 60 | 191 | 9.0 | 13.0 | 0.00 | 0.42 | 0.42 | 84 | 1009.5 |
| 20260506191026 | 60 | 189 | 6.0 | 13.0 | 0.00 | 0.42 | 0.42 | 84 | 1009.5 |
| 20260506190921 | 60 | 184 | 8.0 | 13.0 | 0.00 | 0.42 | 0.42 | 84 | 1009.5 |
| 20260506190804 | 60 | 182 | 6.0 | 13.0 | 0.00 | 0.42 | 0.42 | 84 | 1009.5 |
| 20260506190602 | 60 | 163 | 7.0 | 13.0 | 0.00 | 0.42 | 0.42 | 84 | 1009.5 |
| 20260506190502 | 60 | 178 | 5.0 | 13.0 | 0.00 | 0.42 | 0.42 | 84 | 1009.5 |
| 20260506190405 | 60 | 159 | 5.0 | 13.0 | 0.00 | 0.42 | 0.42 | 84 | 1009.4 |
| 20260506190302 | 60 | 184 | 13.0 | 13.0 | 0.00 | 0.42 | 0.42 | 84 | 1009.4 |
| 20260506190205 | 60 | 184 | 13.0 | 13.0 | 0.00 | 0.42 | 0.42 | 84 | 1009.4 |
| 20260506190107 | 60 | 186 | 9.0 | 12.0 | 0.00 | 0.42 | 0.42 | 84 | 1009.4 |
| 20260506190005 | 60 | 180 | 3.0 | 12.0 | 0.00 | 0.42 | 0.42 | 84 | 1009.3 |
| 20260506185908 | 60 | 175 | 8.0 | 12.0 | 0.00 | 0.42 | 0.42 | 84 | 1009.4 |
| 20260506185723 | 60 | 187 | 4.0 | 10.0 | 0.00 | 0.42 | 0.42 | 84 | 1009.3 |
| 20260506185615 | 60 | 170 | 8.0 | 10.0 | 0.00 | 0.42 | 0.42 | 84 | 1009.3 |
| 20260506185403 | 60 | 177 | 4.0 | 9.0 | 0.00 | 0.42 | 0.42 | 83 | 1009.2 |
| 20260506185302 | 60 | 155 | 5.0 | 9.0 | 0.00 | 0.42 | 0.42 | 83 | 1009.2 |
| 20260506185203 | 60 | 175 | 4.0 | 7.0 | 0.00 | 0.42 | 0.42 | 83 | 1009.1 |
| 20260506185114 | 60 | 186 | 4.0 | 10.0 | 0.00 | 0.42 | 0.42 | 83 | 1009.1 |
| 20260506185003 | 60 | 178 | 6.0 | 10.0 | 0.00 | 0.42 | 0.42 | 83 | 1009.1 |
| 20260506184905 | 60 | 180 | 6.0 | 10.0 | 0.00 | 0.42 | 0.42 | 83 | 1009.1 |
| 20260506184804 | 60 | 180 | 3.0 | 10.0 | 0.00 | 0.42 | 0.42 | 83 | 1009.0 |
| 20260506184704 | 60 | 150 | 6.0 | 10.0 | 0.00 | 0.42 | 0.42 | 84 | 1009.0 |
| 20260506184608 | 60 | 165 | 4.0 | 10.0 | 0.00 | 0.42 | 0.42 | 83 | 1008.9 |
| 20260506184403 | 60 | 171 | 4.0 | 10.0 | 0.00 | 0.42 | 0.42 | 83 | 1009.0 |
| 20260506184307 | 60 | 157 | 3.0 | 11.0 | 0.00 | 0.42 | 0.42 | 83 | 1009.0 |
| 20260506184202 | 60 | 155 | 5.0 | 11.0 | 0.00 | 0.42 | 0.42 | 83 | 1009.0 |
| 20260506184102 | 60 | 152 | 10.0 | 11.0 | 0.00 | 0.42 | 0.42 | 83 | 1009.0 |
| 20260506183907 | 60 | 171 | 5.0 | 11.0 | 0.00 | 0.42 | 0.42 | 83 | 1009.0 |
| 20260506183801 | 60 | 163 | 2.0 | 11.0 | 0.00 | 0.42 | 0.42 | 83 | 1008.9 |
| 20260506183704 | 60 | 176 | 5.0 | 11.0 | 0.00 | 0.42 | 0.42 | 83 | 1008.9 |
| 20260506183606 | 60 | 176 | 8.0 | 11.0 | 0.00 | 0.42 | 0.42 | 83 | 1008.9 |
| 20260506183503 | 60 | 184 | 4.0 | 11.0 | 0.00 | 0.42 | 0.42 | 83 | 1008.9 |
| 20260506183401 | 60 | 186 | 5.0 | 11.0 | 0.00 | 0.42 | 0.42 | 83 | 1008.9 |
| 20260506183201 | 60 | 173 | 9.0 | 11.0 | 0.00 | 0.42 | 0.42 | 83 | 1008.9 |
| 20260506183101 | 60 | 194 | 6.0 | 11.0 | 0.00 | 0.42 | 0.42 | 83 | 1008.9 |
| 20260506183032 | 60 | 173 | 4.0 | 11.0 | 0.00 | 0.42 | 0.42 | 83 | 1008.9 |
| 20260506182801 | 60 | 185 | 2.0 | 10.0 | 0.00 | 0.42 | 0.42 | 83 | 1008.9 |
| 20260506182706 | 60 | 149 | 5.0 | 13.0 | 0.00 | 0.42 | 0.42 | 83 | 1008.9 |
| 20260506182502 | 60 | 171 | 7.0 | 13.0 | 0.00 | 0.42 | 0.42 | 83 | 1008.8 |
| 20260506182405 | 60 | 175 | 4.0 | 13.0 | 0.00 | 0.42 | 0.42 | 83 | 1008.8 |
| 20260506182307 | 60 | 162 | 3.0 | 13.0 | 0.01 | 0.42 | 0.42 | 83 | 1008.9 |
| 20260506182202 | 60 | 159 | 8.0 | 13.0 | 0.01 | 0.42 | 0.42 | 83 | 1008.9 |
| 20260506182106 | 60 | 158 | 4.0 | 13.0 | 0.01 | 0.42 | 0.42 | 83 | 1008.9 |
| 20260506182003 | 60 | 177 | 4.0 | 13.0 | 0.01 | 0.42 | 0.42 | 83 | 1008.9 |
| 20260506181919 | 60 | 177 | 7.0 | 13.0 | 0.01 | 0.42 | 0.42 | 83 | 1008.9 |
| 20260506181804 | 61 | 174 | 6.0 | 13.0 | 0.01 | 0.42 | 0.42 | 83 | 1008.9 |
| 20260506181704 | 61 | 157 | 6.0 | 11.0 | 0.01 | 0.42 | 0.42 | 83 | 1008.9 |
| 20260506181605 | 61 | 150 | 5.0 | 11.0 | 0.01 | 0.42 | 0.42 | 83 | 1008.9 |
| 20260506181505 | 61 | 170 | 6.0 | 11.0 | 0.01 | 0.42 | 0.42 | 83 | 1008.9 |
| 20260506181404 | 61 | 169 | 8.0 | 11.0 | 0.01 | 0.42 | 0.42 | 82 | 1008.9 |
| 20260506181303 | 61 | 199 | 6.0 | 11.0 | 0.01 | 0.42 | 0.42 | 82 | 1008.9 |
| 20260506181207 | 61 | 196 | 6.0 | 11.0 | 0.01 | 0.42 | 0.42 | 82 | 1008.9 |
| 20260506181102 | 61 | 191 | 10.0 | 11.0 | 0.01 | 0.42 | 0.42 | 82 | 1008.9 |
| 20260506181004 | 61 | 189 | 7.0 | 9.0 | 0.01 | 0.42 | 0.42 | 82 | 1009.0 |
| 20260506180905 | 61 | 178 | 6.0 | 11.0 | 0.01 | 0.42 | 0.42 | 82 | 1009.0 |
| 20260506180805 | 61 | 180 | 9.0 | 11.0 | 0.01 | 0.42 | 0.42 | 82 | 1008.9 |
| 20260506180702 | 61 | 181 | 7.0 | 11.0 | 0.01 | 0.42 | 0.42 | 82 | 1008.9 |
| 20260506180621 | 61 | 182 | 5.0 | 11.0 | 0.01 | 0.42 | 0.42 | 81 | 1008.9 |